GFSNGP_con_3kmhel_000.txt.gz
Helicity
116 75 92 107 57 56 79 60 81 38 50 74 67 63 76 92 85 102 117 140 151 129 174 126 103 55 119 117 105 84 127 125 122 123 116 93 80 90 107 118 95 84 77 78
140 95 95 69 57 46 33 42 79 66 52 116 78 83 101 76 99 126 132 158 144 119 87 63 54 106 115 112 98 88 117 111 118 130 129 131 101 85 103 90 84 73 77 73
172 92 60 74 40 103 86 101 71 80 131 97 118 134 121 79 123 176 207 148 119 125 98 91 82 107 100 97 95 96 120 119 150 167 152 137 102 93 85 75 69 69 74 84
183 113 121 147 84 64 29 26 69 86 135 132 124 134 108 229 205 237 167 136 142 131 110 74 70 84 97 93 119 127 124 135 175 188 145 113 89 73 62 67 67 72 85 85
188 179 85 18 114 95 105 43 146 149 156 148 153 155 167 171 118 128 80 68 106 92 80 65 75 119 119 129 133 111 102 150 192 158 113 89 64 64 66 72 74 85 90 85
200 195 180 134 116 38 102 107 182 182 121 115 130 178 171 120 115 86 97 126 115 71 66 73 116 149 152 150 130 111 135 101 117 115 97 64 62 65 72 76 85 109 102 88
114 165 124 111 134 117 125 198 169 157 162 170 142 117 100 117 47 76 90 80 80 65 81 91 104 138 144 156 119 107 109 102 86 106 82 63 70 73 80 85 96 133 108 100
134 152 112 140 135 150 177 150 150 128 120 110 71 77 103 74 95 96 94 86 90 95 89 89 113 140 127 146 143 124 105 91 92 93 79 77 74 78 80 88 129 131 119 112
210 177 119 91 114 135 167 172 144 180 100 63 9 38 73 96 97 92 79 80 87 92 84 103 107 131 126 142 164 120 91 90 86 89 80 76 78 78 87 105 152 129 117 106
191 118 52 95 125 146 179 167 163 95 31 -4 42 89 112 104 97 87 79 92 115 115 123 113 102 137 176 197 163 115 89 86 85 83 97 72 86 89 98 138 148 119 116 97
115 66 92 127 161 181 136 122 41 36 52 83 121 104 98 98 86 99 116 139 138 132 125 115 107 164 184 141 115 105 98 87 84 91 87 79 83 100 99 127 157 128 113 99
206 141 160 149 153 71 31 42 80 98 103 115 95 94 97 105 118 126 138 127 121 102 100 91 115 126 122 150 123 104 84 72 92 88 91 90 81 71 173 164 154 129 117 113
165 199 125 135 161 132 128 145 130 116 99 84 72 105 116 115 113 127 96 96 101 98 82 88 103 121 137 103 111 92 62 76 80 83 83 85 74 68 75 122 170 138 123 99
251 168 136 136 154 153 139 119 100 82 69 77 93 107 114 127 106 99 91 107 114 100 90 95 95 100 97 105 78 48 48 73 66 73 78 77 69 66 75 92 93 96 138 114
140 123 119 158 146 107 82 89 85 69 78 84 93 113 115 108 103 97 104 103 110 98 80 100 108 87 94 77 41 42 36 49 59 73 76 71 61 60 70 76 84 97 89 100
108 143 136 141 118 99 83 68 79 80 83 95 105 112 105 102 101 116 118 103 105 82 75 103 95 79 73 48 40 38 34 61 56 70 71 66 59 59 65 67 71 91 86 78
149 131 116 100 94 79 63 75 88 104 110 105 106 110 97 108 112 103 105 114 98 82 83 87 70 78 60 47 42 33 45 49 66 64 70 66 58 55 59 63 65 74 86 82
173 156 108 92 85 87 91 105 115 110 102 99 113 115 115 113 115 116 115 108 97 67 85 77 80 66 59 56 54 40 44 59 61 72 68 63 57 52 54 59 64 64 74 82
143 116 99 96 103 109 111 109 114 113 113 110 110 111 112 117 109 99 124 124 98 64 80 96 78 55 51 72 53 49 51 58 63 74 67 59 52 53 53 56 64 68 63 61
112 101 96 96 113 126 121 113 121 106 95 101 111 111 108 93 85 92 118 118 89 69 120 100 67 59 61 65 53 44 46 54 61 78 65 55 57 56 58 63 60 60 64 60
98 93 102 117 118 128 133 130 122 109 101 107 111 114 113 111 115 109 97 108 63 108 93 99 64 52 46 44 42 44 39 51 63 66 60 56 59 62 61 64 64 60 61 61
96 111 126 126 128 123 117 110 111 123 122 118 101 119 107 93 96 75 97 101 71 116 93 82 61 74 55 62 41 45 41 43 48 51 53 60 61 64 60 60 66 66 62 61
102 105 122 132 140 108 100 103 106 111 142 103 85 103 113 122 108 93 82 84 96 94 79 81 87 83 70 62 56 48 43 43 38 41 46 53 57 62 60 54 61 66 66 62
105 123 122 134 135 113 89 61 70 82 141 97 100 119 119 123 96 82 85 79 76 92 87 98 88 80 79 67 62 55 46 39 43 44 54 68 60 66 66 61 58 63 71 75
142 126 124 127 105 89 78 58 57 64 93 88 89 97 80 100 130 64 76 58 53 72 90 98 89 90 90 74 62 53 52 51 52 49 45 54 59 65 68 68 68 64 73 82
116 115 108 100 92 91 77 70 79 82 91 89 87 94 86 104 89 66 64 65 62 74 81 103 115 121 102 83 69 62 61 61 60 61 58 53 49 59 68 68 63 72 83 88
102 117 109 90 78 78 77 85 91 85 92 91 95 87 92 77 90 77 83 87 82 82 99 110 117 111 92 93 79 74 75 73 71 69 68 64 57 54 58 59 65 72 92 110

GFSNGP_con_3kmhel_003.txt.gz
Helicity
59 62 111 117 76 66 74 81 96 31 20 23 74 139 89 76 119 119 74 149 227 170 134 136 123 186 124 161 118 92 117 119 140 127 91 124 161 143 121 109 103 84 74 74
83 90 111 87 54 36 59 71 48 40 22 105 113 81 96 172 128 155 189 181 128 117 134 110 155 115 98 85 86 144 146 148 160 134 167 141 149 129 115 96 83 83 76 69
95 84 67 142 111 119 82 58 66 64 44 95 78 206 170 145 163 232 155 112 122 141 141 136 133 104 78 94 104 142 108 138 132 230 159 170 146 120 97 89 72 67 64 73
116 96 126 224 106 16 69 28 35 42 117 188 187 141 141 227 172 127 139 104 116 146 147 117 87 80 71 116 74 95 124 160 167 215 181 141 115 84 94 64 71 74 94 130
136 135 100 44 174 167 80 31 52 169 175 138 115 112 130 155 151 132 79 105 156 135 114 96 91 86 73 92 87 99 112 94 134 162 97 125 113 88 60 61 68 101 144 134
169 184 207 214 138 91 55 77 249 174 179 114 122 153 168 148 98 70 75 110 103 116 91 91 93 100 102 78 91 113 158 156 143 115 135 81 87 63 53 57 89 172 159 137
145 198 161 118 163 67 147 155 168 158 107 108 140 159 127 43 54 91 97 72 93 85 119 104 118 98 95 69 104 139 155 217 124 117 100 79 62 48 55 68 122 181 141 126
178 203 160 135 170 209 126 108 180 113 101 140 138 83 42 79 93 89 105 116 106 125 132 134 111 105 96 55 82 114 163 191 118 96 90 74 44 51 74 83 130 143 136 127
210 190 108 111 119 58 124 150 136 122 117 77 95 82 94 82 115 116 114 113 118 146 144 121 97 76 62 107 154 233 188 161 112 84 88 57 99 79 87 106 147 125 117 130
188 119 64 70 63 190 210 117 123 70 14 75 54 110 111 132 125 119 116 119 143 145 134 94 74 68 87 169 111 93 68 95 108 115 108 82 87 85 118 130 109 104 131 118
140 63 74 58 182 197 124 95 76 55 93 103 113 126 122 122 112 125 124 134 132 88 84 93 85 104 132 147 128 105 96 76 91 74 81 82 72 129 108 141 153 125 123 111
134 155 165 167 204 117 61 100 105 155 139 140 124 114 101 122 132 116 137 102 93 84 96 115 127 131 114 120 116 76 67 78 74 74 72 75 82 93 147 125 131 140 145 117
152 178 239 177 121 75 89 108 158 160 125 128 117 97 111 122 115 145 97 102 120 114 114 127 112 144 98 140 110 81 78 51 53 56 67 82 93 94 76 112 111 160 157 99
146 167 160 94 61 134 107 130 112 107 110 106 111 118 116 120 119 104 99 109 115 118 109 95 101 140 145 121 106 76 46 51 51 53 75 86 94 91 77 74 64 91 157 145
184 135 61 116 159 109 87 116 140 110 110 106 112 115 124 120 111 93 89 103 140 124 90 96 117 128 131 137 84 54 67 49 54 59 74 75 78 80 68 65 63 69 76 109
109 113 107 103 98 128 147 125 106 86 94 118 112 128 116 102 92 96 88 98 149 116 99 100 92 93 100 89 60 48 68 88 54 64 66 69 78 81 68 63 58 67 70 82
160 147 125 119 148 135 117 95 94 110 114 110 115 126 106 109 105 95 99 103 131 148 139 107 94 84 113 70 55 48 69 73 77 61 66 77 71 70 69 64 58 61 73 121
179 182 146 142 117 103 96 105 113 112 111 109 127 121 125 127 119 112 95 106 128 133 143 91 95 93 97 61 75 64 63 61 68 68 76 78 71 68 75 67 60 60 66 93
156 139 126 107 104 106 100 101 109 131 127 136 129 124 129 142 121 109 100 119 108 110 104 108 128 107 85 82 81 54 62 56 58 65 77 70 60 66 73 77 74 65 66 64
136 132 116 95 110 116 113 114 128 120 110 114 142 134 128 121 128 116 104 108 99 126 117 111 139 96 77 69 81 44 57 50 49 60 72 62 56 65 71 81 81 69 66 70
125 104 93 99 104 123 139 137 142 131 112 130 133 132 120 109 114 104 101 96 66 114 106 120 124 82 73 72 86 61 54 45 48 52 52 53 53 58 67 75 82 84 73 75
95 87 103 116 120 114 126 128 117 139 123 107 114 125 106 103 115 116 125 116 91 121 122 113 97 74 69 113 73 98 59 39 41 42 40 45 56 59 65 72 77 86 83 78
77 82 101 121 130 107 122 125 124 115 117 107 97 94 101 109 112 110 94 66 79 95 97 83 98 137 120 102 74 91 76 51 45 42 46 53 57 62 59 67 74 79 75 75
74 76 86 113 134 133 108 76 89 115 124 101 98 89 114 98 97 101 114 67 69 78 83 72 127 121 126 110 80 72 76 65 55 50 53 60 72 66 67 68 70 73 74 82
97 97 103 120 109 95 73 71 97 81 97 69 85 100 88 85 108 92 120 80 73 86 87 89 105 117 130 115 97 98 75 68 58 54 54 52 58 68 71 71 72 76 79 81
81 95 95 95 95 89 99 93 83 101 104 86 86 87 79 84 95 89 104 91 81 94 104 114 129 121 134 120 108 118 90 79 77 75 72 71 67 67 72 70 70 72 81 94
80 88 83 80 83 92 104 108 118 98 99 93 83 76 69 83 82 81 81 100 97 101 111 136 134 142 156 125 130 154 111 99 97 89 85 85 81 78 75 73 69 73 78 90

GFSNGP_con_3kmhel_006.txt.gz
Helicity
38 51 78 89 83 85 93 88 135 70 43 30 100 148 268 253 223 173 178 226 215 126 148 169 143 134 111 127 111 156 113 129 169 253 288 234 273 236 214 161 148 154 120 101
46 79 97 63 66 67 55 67 70 56 10 56 185 233 199 158 156 180 258 191 120 136 135 138 143 115 119 110 93 173 152 149 193 213 154 344 237 213 204 179 181 144 125 114
77 81 56 103 108 135 166 112 120 119 40 104 179 202 160 149 182 184 147 122 103 85 128 192 162 123 122 118 100 119 147 202 285 266 169 177 134 189 232 158 165 142 121 128
105 96 127 158 81 69 100 85 57 35 74 149 206 186 122 250 260 209 128 98 42 114 150 163 122 106 131 154 141 72 60 141 181 184 169 73 228 214 157 125 159 123 141 192
127 135 93 31 165 166 179 58 47 160 223 194 155 89 141 238 244 135 69 12 108 100 151 121 120 130 182 165 107 76 53 195 115 160 72 194 194 184 96 145 125 170 175 180
162 158 134 143 241 196 62 112 225 188 143 111 85 126 188 214 134 101 76 89 112 115 101 121 169 186 173 151 119 68 56 114 175 189 79 167 138 150 166 121 160 176 162 108
140 144 98 76 134 105 198 246 148 133 113 101 133 176 129 105 164 99 93 118 88 94 143 199 184 180 148 122 102 147 154 132 134 120 79 121 147 170 139 155 163 178 144 107
142 147 102 172 226 216 208 153 171 165 110 119 131 117 125 179 142 103 131 136 125 164 184 223 147 111 137 167 181 180 113 133 97 66 64 122 169 163 145 143 214 176 105 136
173 148 87 161 188 125 156 127 250 130 151 132 104 76 165 162 105 115 155 162 172 178 208 116 105 111 168 235 221 202 127 109 96 97 106 154 111 92 114 198 176 112 126 128
222 170 122 160 133 320 233 191 268 232 167 76 55 173 122 100 142 188 203 179 189 190 122 153 141 137 205 225 208 186 154 125 94 101 112 89 98 104 160 158 130 123 121 132
178 134 136 258 351 340 248 223 146 144 98 87 144 111 146 190 174 162 156 198 189 143 156 179 141 162 205 189 138 137 130 110 103 104 82 76 80 111 132 135 127 118 126 137
172 176 275 351 298 239 198 164 115 170 150 126 127 177 155 176 180 173 177 164 153 138 147 142 166 170 132 147 170 160 119 115 92 75 73 61 76 95 127 115 97 111 121 114
191 288 310 208 175 188 192 266 196 150 113 145 140 181 188 183 160 153 153 129 128 126 140 167 137 113 114 189 210 155 130 95 76 73 75 82 92 103 88 95 84 112 115 91
346 265 165 163 143 190 221 127 93 105 143 168 184 175 165 156 148 141 122 122 123 122 143 140 88 118 163 155 212 175 120 76 91 79 70 76 78 82 88 88 82 85 117 109
289 175 143 180 162 196 110 138 170 138 168 150 169 165 159 138 132 118 120 119 132 127 130 136 117 88 89 156 147 108 99 129 129 75 79 79 76 82 84 81 77 78 90 125
203 120 198 223 235 189 178 152 158 152 153 155 133 134 132 131 119 115 105 135 141 110 95 125 147 113 95 92 100 86 80 174 122 77 85 75 80 80 80 80 80 83 82 115
171 204 271 272 182 184 178 170 151 162 120 108 110 140 128 121 112 103 124 127 137 119 122 136 130 100 98 84 94 75 88 136 118 98 82 84 83 80 79 89 90 89 88 132
224 295 270 196 182 174 162 165 139 121 113 118 137 142 149 146 126 116 111 122 122 123 122 141 151 126 101 91 89 100 117 97 94 83 81 86 86 73 73 90 99 99 99 110
234 181 183 164 152 156 128 110 109 137 115 127 150 145 145 147 126 113 106 103 112 110 100 120 123 141 103 105 112 105 95 88 79 69 71 97 78 66 71 78 90 110 105 104
146 168 155 133 138 113 91 100 121 128 122 142 152 140 122 117 117 88 101 118 114 132 116 113 155 143 115 95 116 97 89 94 72 62 60 82 78 64 73 76 85 102 109 108
146 118 111 101 84 89 103 112 132 130 126 144 145 123 106 93 86 90 101 119 89 105 114 102 158 128 107 90 132 110 90 99 79 64 62 61 66 70 77 78 79 83 107 103
122 108 80 79 93 100 110 122 124 145 136 123 127 119 91 88 92 98 98 112 109 106 101 112 128 102 73 104 124 142 155 120 85 61 57 51 57 66 82 78 80 85 92 100
88 77 82 92 102 104 115 130 136 130 104 112 102 87 95 113 118 105 86 83 59 95 69 92 103 100 115 134 122 115 122 125 107 78 63 58 64 71 84 82 86 89 90 92
79 86 95 101 120 129 107 98 110 110 133 128 126 111 112 129 135 109 90 88 67 98 96 86 89 129 144 136 129 121 109 110 118 101 84 72 73 81 100 97 96 93 96 91
92 97 105 118 112 117 107 92 111 118 113 125 141 111 103 143 139 97 94 98 78 104 96 97 102 123 165 181 152 138 119 125 122 121 102 88 77 63 66 89 106 99 97 100
93 105 112 117 116 102 101 112 121 121 135 131 121 106 104 122 113 116 113 97 81 101 104 111 122 127 166 196 178 162 147 134 147 144 127 111 96 88 78 74 85 92 94 98
104 114 125 120 108 112 124 137 147 165 153 129 113 84 90 91 89 93 94 104 101 93 110 116 130 144 169 183 197 190 171 182 164 148 163 142 116 106 102 93 88 90 91 91

GFSNGP_con_3kmhel_009.txt.gz
Helicity
34 35 54 60 53 62 103 141 278 133 141 282 145 192 217 209 242 259 187 123 133 100 78 88 128 158 121 120 133 113 118 144 193 212 262 282 293 360 225 60 167 187 172 148
66 101 83 59 26 20 60 76 103 156 166 109 93 147 176 199 227 167 121 68 115 101 102 120 147 131 155 227 181 146 132 119 123 163 161 136 118 176 68 154 175 189 165 145
60 73 77 112 100 100 134 148 189 184 163 242 307 275 178 165 123 79 87 123 88 87 128 181 167 207 270 206 165 120 107 125 81 50 21 42 77 55 188 150 150 130 187 176
83 108 125 103 96 123 182 219 186 243 368 383 328 172 90 103 91 124 118 104 130 169 202 162 172 224 181 134 119 98 139 109 54 62 33 75 106 113 105 124 146 194 161 166
125 121 95 142 174 138 163 141 152 292 339 298 208 97 102 57 81 123 145 138 161 164 136 166 190 162 129 124 115 152 182 153 104 81 96 148 138 49 133 149 196 163 158 135
158 150 98 150 211 164 152 172 243 208 200 163 120 159 63 134 136 146 105 134 180 156 182 222 181 129 140 137 157 213 229 179 130 77 91 95 55 42 129 177 171 171 129 77
164 154 93 73 166 144 232 160 242 236 206 142 115 132 106 116 154 136 147 176 178 219 214 187 136 137 162 147 229 244 216 149 104 97 120 111 95 136 120 153 170 126 100 64
171 171 97 81 218 234 183 253 248 290 255 176 157 150 137 177 174 126 168 203 202 216 207 153 129 166 161 211 219 215 164 113 126 110 112 120 115 114 130 123 103 90 66 23
195 147 117 116 169 205 280 244 294 293 231 206 206 206 166 178 139 190 214 185 195 205 166 147 166 163 186 198 207 159 99 132 125 106 118 114 115 90 81 75 74 60 46 52
260 167 145 206 294 331 344 377 390 302 248 187 189 187 210 203 224 227 204 194 168 157 147 144 140 135 146 155 139 110 130 117 99 107 100 76 62 62 74 68 64 57 60 73
236 239 244 331 344 391 366 354 299 229 185 211 254 256 249 245 227 201 163 137 131 130 135 122 139 137 116 127 154 179 145 95 97 92 80 67 78 84 58 45 53 63 73 90
190 162 231 284 278 276 287 238 171 201 254 268 272 261 238 203 167 158 144 122 125 125 113 124 141 124 103 137 169 171 145 93 81 84 73 83 97 92 68 56 63 80 88 107
207 237 267 264 286 253 196 287 331 278 253 285 263 233 178 156 170 154 128 124 129 115 111 123 138 148 170 167 141 140 126 88 76 71 72 81 71 49 23 57 57 50 82 74
268 339 290 258 217 176 299 233 224 243 252 241 217 176 175 157 153 134 118 122 114 122 111 113 103 123 140 114 111 141 112 84 100 108 84 70 66 60 65 64 62 58 49 100
375 389 320 265 245 304 254 278 284 267 241 207 187 163 154 154 137 114 124 114 113 115 115 111 95 111 110 100 94 90 85 91 144 132 72 61 68 67 67 62 64 70 75 117
356 311 336 270 334 352 323 295 268 218 192 166 152 128 130 132 121 125 127 101 113 90 97 125 123 113 118 99 75 79 66 88 119 105 74 68 72 77 64 62 66 67 79 99
393 362 307 380 382 306 268 217 190 163 139 132 107 110 121 117 127 136 127 101 98 95 93 134 122 103 125 107 87 80 90 115 105 99 88 82 85 76 66 55 71 78 81 109
445 452 368 298 263 213 185 156 129 124 120 103 108 114 122 132 137 124 112 80 63 76 74 121 118 100 117 96 90 98 113 100 106 94 88 81 83 93 65 60 71 88 90 104
339 246 264 227 168 151 127 108 105 98 91 95 118 113 122 123 114 109 95 86 62 73 89 108 103 67 122 96 83 100 111 86 84 87 76 69 83 76 63 71 70 81 96 97
230 204 169 105 97 93 85 75 81 87 87 115 120 122 124 116 86 93 82 90 93 132 116 97 91 76 133 104 90 111 103 88 83 87 76 73 97 82 72 69 74 80 90 110
143 116 66 72 75 76 81 85 94 94 93 117 134 132 129 109 89 85 103 102 97 105 79 61 87 72 124 106 90 108 111 107 97 99 85 75 75 82 75 90 85 79 76 91
99 89 78 72 80 72 72 73 86 103 112 110 129 126 117 101 95 121 145 130 105 84 56 85 78 59 110 95 95 125 121 132 143 144 105 80 83 79 77 93 81 80 81 77
90 80 71 79 78 78 88 93 103 127 121 124 137 122 100 130 146 136 120 115 106 79 76 77 104 49 84 99 122 140 126 127 136 147 148 111 98 94 95 100 99 100 90 87
84 86 85 86 99 109 91 94 123 130 141 140 127 109 123 131 135 154 155 129 106 90 78 80 95 80 68 122 148 153 167 160 122 125 133 127 120 110 102 98 108 117 113 98
81 86 92 100 100 120 133 132 135 112 112 143 157 153 128 119 142 105 114 106 101 107 92 72 91 103 107 119 158 175 187 192 159 151 148 151 142 135 127 109 98 103 113 108
88 99 113 110 133 149 160 149 153 138 159 181 176 135 111 91 110 107 102 87 90 91 99 97 91 110 129 136 140 155 178 193 190 184 179 171 157 150 127 103 106 103 106 107
89 97 115 130 131 132 133 139 135 120 133 141 123 110 95 105 101 104 92 86 81 74 80 93 91 94 116 133 134 156 184 195 202 208 222 199 197 175 152 130 121 122 114 109

GFSNGP_con_3kmhel_012.txt.gz
Helicity
71 64 60 59 77 118 128 120 186 105 192 227 265 318 326 339 313 285 240 232 146 87 93 102 155 210 191 160 147 126 117 110 75 50 91 44 61 101 61 56 97 55 133 132
64 88 87 54 32 39 60 91 117 171 263 300 366 358 360 282 260 227 178 96 37 15 124 162 200 187 155 144 124 111 114 105 54 85 74 31 41 76 94 109 92 102 110 140
63 98 88 83 81 97 142 142 149 177 222 416 401 348 275 226 191 147 100 4 -11 92 145 178 175 154 146 113 94 100 114 73 111 83 68 30 53 76 107 136 69 116 179 192
91 128 106 98 88 94 156 189 216 277 307 310 276 238 206 145 119 61 -1 -8 107 173 180 158 152 155 127 91 74 123 136 145 117 92 61 55 90 133 118 15 90 171 187 171
115 104 103 128 163 148 162 137 173 235 262 293 258 242 161 84 64 56 60 113 147 149 158 161 140 109 107 111 136 169 167 138 111 96 57 56 110 110 106 112 154 171 154 140
141 124 87 103 137 167 182 140 139 180 207 229 255 273 165 111 150 159 150 150 189 175 153 168 146 134 144 150 165 179 144 118 91 88 79 96 119 107 132 144 166 143 121 96
196 157 123 82 208 182 220 88 140 172 193 209 235 172 102 163 167 165 197 230 211 218 192 154 132 141 181 184 180 146 136 112 111 118 111 112 143 148 157 168 123 95 73 61
212 206 125 122 241 240 150 176 184 222 232 247 213 154 173 204 216 297 282 248 234 204 173 146 163 178 168 166 140 144 128 113 120 122 111 128 146 141 133 113 89 52 62 45
153 115 143 103 163 193 230 241 244 299 260 265 218 207 231 288 353 284 237 225 182 163 149 153 155 157 155 134 124 128 137 127 123 118 114 117 119 113 114 85 54 39 52 59
219 144 131 133 233 262 284 291 307 302 294 248 224 260 338 328 268 247 218 184 151 149 148 143 134 143 127 117 111 135 159 150 126 109 93 101 100 110 91 54 40 43 58 62
213 213 274 286 254 299 373 373 330 298 260 213 276 329 273 245 243 201 172 146 135 147 145 135 132 125 110 119 100 122 158 146 118 95 87 84 111 110 69 31 44 54 65 68
206 137 193 189 233 284 310 239 249 303 371 340 295 239 214 217 181 155 144 141 154 141 138 141 132 104 109 151 148 148 128 123 117 92 75 71 85 84 54 34 41 50 77 91
153 121 168 200 206 229 264 282 296 336 315 302 243 200 182 151 137 153 156 153 149 137 139 140 116 100 98 131 137 96 107 118 105 88 88 72 67 72 50 78 62 65 50 78
183 343 351 329 273 290 348 386 430 396 324 242 185 169 144 139 158 153 139 141 138 137 138 120 111 102 106 117 119 111 111 86 92 92 105 82 72 58 65 60 54 51 48 65
249 293 231 292 385 406 437 506 385 261 229 182 153 148 163 159 136 120 132 138 137 136 124 103 91 91 100 115 110 102 85 89 73 96 98 72 58 64 70 61 54 50 57 69
319 379 374 391 497 587 581 252 218 183 163 149 160 162 138 121 116 123 130 133 141 130 99 87 83 114 97 106 112 99 86 74 77 88 87 71 68 88 75 68 54 55 68 73
405 473 636 732 717 508 196 154 131 127 132 143 137 126 112 114 115 117 132 120 115 106 86 77 98 101 92 105 110 98 94 97 87 96 92 86 89 89 75 73 57 56 68 81
549 663 696 551 295 145 86 99 106 115 118 125 124 110 104 115 112 119 112 91 96 84 80 99 103 102 89 95 104 99 111 105 105 110 93 86 80 75 90 70 54 61 63 74
695 664 358 138 96 66 103 110 103 93 99 93 105 89 98 107 128 125 95 70 66 90 115 111 100 78 93 82 94 114 110 102 99 87 90 84 69 65 82 68 60 65 71 74
168 101 91 76 87 103 78 53 64 73 71 97 105 111 114 129 126 115 99 115 129 144 121 94 76 52 95 68 88 117 101 105 92 80 79 84 84 74 74 79 71 75 73 64
37 84 117 102 60 30 31 71 90 78 75 106 113 108 127 123 140 119 118 135 119 106 102 94 95 83 97 81 100 109 95 93 96 99 99 106 103 84 81 78 89 98 81 75
79 80 52 33 45 65 72 69 77 90 99 105 110 129 136 130 140 139 131 129 132 99 105 111 99 77 91 65 99 103 96 94 106 105 115 129 138 121 102 91 99 104 88 85
60 51 57 65 66 64 80 93 101 106 100 118 133 135 161 165 159 144 111 98 129 118 114 114 97 61 61 83 79 117 129 132 129 123 124 143 146 152 129 126 122 124 122 114
61 71 68 69 88 98 93 101 113 121 147 148 137 149 146 167 165 137 134 114 100 85 85 90 82 69 48 75 78 96 121 150 167 168 165 140 133 133 136 137 131 128 129 138
53 61 80 93 92 105 111 128 144 145 144 127 117 137 134 152 166 131 113 109 96 89 89 69 74 69 68 70 72 104 137 144 140 147 169 179 173 164 153 136 144 145 133 128
102 107 105 97 105 110 124 148 145 143 138 144 142 124 136 152 155 143 127 101 104 84 65 57 55 67 68 68 71 83 112 153 156 154 145 165 179 195 183 175 166 193 151 135
111 112 123 121 124 138 148 141 145 150 153 171 174 137 132 131 127 123 117 114 115 83 63 56 61 65 60 65 83 104 130 132 118 120 135 134 173 216 204 177 154 180 170 144

GFSNGP_con_3kmhel_015.txt.gz
Helicity
84 90 73 65 76 92 102 122 145 85 141 141 231 331 382 378 353 311 263 236 215 207 135 106 165 120 124 117 99 107 113 99 59 61 63 83 91 74 83 104 105 113 142 143
86 108 97 60 66 69 77 104 127 103 111 120 232 368 369 316 281 263 239 232 198 168 158 122 108 111 125 116 105 114 85 88 82 96 115 111 80 59 63 99 125 212 66 148
81 106 103 61 70 154 113 133 161 190 143 231 270 294 305 268 250 237 215 174 156 136 112 86 104 117 130 106 101 94 100 110 129 127 117 97 71 67 79 94 96 71 152 174
107 131 127 84 110 94 132 135 144 163 188 244 258 227 242 246 240 209 167 135 96 97 113 100 130 137 123 124 115 115 141 141 137 144 135 112 86 90 94 96 104 138 157 165
162 154 152 127 138 201 200 110 151 176 204 206 266 316 257 207 188 155 109 83 125 142 136 161 154 149 150 137 134 137 125 154 154 143 143 122 99 90 105 121 169 181 156 149
203 184 122 103 135 184 205 154 140 213 205 253 320 293 179 185 176 120 156 208 190 193 196 187 174 164 165 143 138 146 153 152 142 155 148 125 103 95 141 150 166 155 134 114
190 170 163 83 190 255 258 97 141 113 172 265 260 215 177 237 159 191 250 267 239 219 197 175 158 168 151 147 163 154 144 152 154 149 139 120 112 126 147 181 170 138 116 101
229 225 168 177 330 203 111 167 101 132 170 214 214 224 252 205 241 291 300 261 227 216 193 172 162 160 177 182 161 144 141 154 163 163 151 143 134 147 155 151 149 107 90 71
149 123 127 73 105 123 182 192 177 209 221 221 256 251 257 295 294 298 260 231 211 196 171 148 154 172 192 166 147 129 133 144 189 179 138 130 133 140 146 141 111 77 71 78
211 128 115 104 78 162 173 206 245 276 320 340 304 294 337 251 246 256 216 209 182 164 149 150 165 181 181 151 134 123 119 140 176 169 119 113 121 130 138 123 90 69 71 81
160 122 142 138 147 190 252 276 328 365 361 303 324 343 300 270 251 202 189 174 155 146 153 150 168 169 151 128 126 132 124 136 164 155 129 113 107 109 108 87 89 81 77 90
186 144 164 132 139 195 283 338 382 387 394 370 394 362 272 237 178 171 160 154 156 153 149 156 165 151 135 122 116 127 127 112 147 164 124 108 97 91 71 64 60 48 62 102
146 116 163 156 146 267 301 292 344 378 389 436 444 251 189 154 132 135 152 159 156 141 146 154 153 144 132 128 110 117 122 117 146 135 120 123 112 103 86 71 78 68 67 68
162 234 196 206 176 246 336 393 457 512 534 505 258 156 137 120 125 144 161 140 137 139 141 144 141 129 130 129 101 117 125 118 122 119 114 125 114 95 79 95 75 67 61 58
132 183 180 204 299 431 489 563 639 696 521 200 120 110 118 115 137 142 126 127 127 125 120 130 122 102 141 124 110 104 126 128 117 114 108 117 105 94 86 88 74 69 57 59
138 208 245 316 421 515 638 700 685 332 83 91 80 98 119 152 129 104 105 104 110 107 112 108 87 102 132 112 102 100 121 112 112 114 111 112 107 105 96 91 71 64 55 63
211 271 397 548 604 690 796 667 282 94 83 70 96 130 143 125 92 84 76 78 78 65 74 85 105 105 110 105 96 110 121 132 120 118 119 119 111 106 91 86 78 71 60 65
346 477 538 612 748 669 426 149 117 73 71 95 132 130 115 101 71 55 59 70 77 77 65 97 109 106 100 93 97 112 110 142 139 119 104 104 88 87 101 100 97 74 55 64
484 527 503 504 453 325 131 55 5 53 96 113 115 86 73 57 70 78 109 108 105 127 101 100 102 100 94 83 92 99 112 123 143 103 103 92 82 90 96 96 95 84 67 70
436 436 397 253 82 44 27 14 53 98 110 103 85 70 62 60 89 106 145 146 128 136 117 90 111 113 114 99 97 103 114 111 114 99 96 91 94 98 95 101 100 91 92 89
10 3 15 3 8 34 61 79 96 59 38 65 70 75 82 91 127 147 155 161 140 111 107 106 120 121 107 98 84 95 111 112 125 110 104 102 110 115 113 109 115 114 115 121
37 53 51 45 28 17 18 27 26 43 60 79 87 92 107 110 142 169 168 174 155 109 131 136 133 101 93 79 75 77 86 114 126 134 137 124 120 116 119 135 125 136 137 141
37 36 23 21 25 43 66 67 68 72 81 99 109 117 140 155 173 169 160 129 135 116 121 131 107 84 68 84 69 71 71 88 108 136 150 155 172 178 156 151 152 137 144 184
49 63 62 62 67 68 72 75 93 102 106 106 116 123 145 166 177 178 154 134 112 101 123 102 84 72 63 73 62 58 70 89 102 122 140 148 151 141 162 171 183 188 173 158
62 57 65 77 79 91 96 103 100 96 101 117 127 130 143 166 193 186 153 135 110 100 110 87 82 75 66 61 59 62 68 76 99 116 125 128 132 138 132 138 169 197 195 182
112 108 99 96 87 92 90 94 92 111 131 143 163 170 180 185 184 176 174 152 145 127 130 107 97 89 92 67 51 46 51 57 60 76 115 152 152 138 120 124 145 192 212 167
115 106 93 77 80 86 94 103 111 123 138 153 160 142 144 152 142 138 129 129 159 174 134 101 72 80 67 65 60 59 57 50 56 67 80 87 92 131 114 129 157 188 245 176

GFSNGP_con_3kmhel_021.txt.gz
Helicity
72 71 49 44 51 81 93 134 124 98 108 84 62 84 100 156 248 310 342 326 287 265 255 226 174 206 108 107 140 124 115 103 99 110 133 154 156 144 134 121 129 129 130 121
53 75 81 42 35 79 94 127 101 146 67 99 141 153 176 191 249 286 311 296 256 236 228 193 182 92 101 143 139 135 113 102 113 131 149 166 164 155 143 136 134 145 153 138
69 108 108 37 50 142 191 196 180 163 162 170 123 116 99 186 249 275 294 261 237 199 199 152 110 129 141 152 145 119 117 123 137 155 169 172 165 147 140 141 141 157 159 148
102 128 127 105 109 112 91 111 167 182 204 136 128 133 110 108 180 259 259 236 199 191 179 167 180 174 166 149 125 129 134 143 153 166 157 163 156 143 145 140 145 140 142 145
111 119 109 103 102 105 118 111 102 148 157 189 171 156 108 83 124 172 196 194 199 211 216 228 223 174 152 142 136 135 139 145 156 165 155 152 152 151 147 139 145 137 141 148
137 121 90 82 106 114 123 126 90 98 188 171 159 204 84 101 135 158 190 230 265 267 316 296 207 164 144 132 129 135 148 154 157 150 149 141 166 164 150 153 139 157 160 148
179 154 122 63 136 123 177 93 91 60 66 118 118 100 124 108 158 196 255 298 324 308 339 241 173 143 141 125 120 144 145 143 142 151 142 144 162 160 144 138 142 165 163 146
150 171 110 80 113 111 89 75 69 78 75 117 94 165 178 191 265 346 404 418 438 353 224 177 146 135 116 95 131 137 132 135 161 160 147 152 146 145 150 147 137 148 151 126
110 121 100 30 56 86 119 109 110 135 117 126 165 209 244 268 371 433 482 480 369 344 242 160 131 106 88 104 127 120 122 154 181 149 130 143 136 123 138 131 127 136 132 112
150 84 63 59 63 90 123 143 149 130 123 172 170 241 329 400 425 512 566 444 374 365 138 118 91 85 85 116 112 118 138 149 145 127 115 114 123 134 125 120 120 123 112 103
117 71 93 76 96 73 76 93 102 127 158 167 207 295 452 534 589 518 379 215 337 181 144 81 77 80 105 111 122 136 144 131 118 118 110 99 111 126 123 117 112 99 93 102
129 115 117 102 71 62 77 94 102 111 163 193 235 370 456 541 530 345 351 374 274 130 82 73 75 84 90 105 130 137 130 122 124 112 101 99 109 117 113 93 102 93 73 95
115 110 70 78 70 87 92 116 136 175 212 307 353 449 566 530 446 467 490 195 86 78 64 73 71 69 78 100 114 112 113 112 110 102 94 95 112 121 100 103 105 105 82 62
76 81 84 103 109 139 174 226 295 336 375 462 567 626 713 617 476 458 152 76 63 56 62 58 56 59 56 71 92 88 97 104 101 100 93 99 111 131 105 100 122 112 118 95
147 109 103 166 190 189 202 258 394 479 541 630 605 628 644 423 174 30 37 40 48 46 41 51 53 44 62 81 81 78 95 112 107 108 99 94 109 137 103 104 117 104 105 109
98 167 215 242 233 242 305 391 443 436 477 486 521 350 123 74 -0 11 25 45 63 50 61 65 58 49 68 75 81 91 102 100 100 104 100 81 108 130 105 100 93 88 93 96
88 147 179 214 289 337 396 399 391 381 364 250 151 124 38 14 6 10 35 59 59 58 73 74 66 65 75 85 84 96 113 104 87 105 101 84 90 125 113 93 78 74 71 90
186 226 271 275 288 276 267 208 166 155 129 21 -36 -47 -36 -10 4 29 55 78 74 72 67 85 97 96 100 100 90 119 139 119 100 94 90 85 83 99 114 105 87 85 73 79
121 106 84 75 52 36 46 59 34 -41 -53 -27 -8 2 25 48 67 65 75 77 74 84 89 135 146 141 123 110 122 156 148 121 96 78 74 74 75 77 114 111 103 102 94 91
63 64 65 51 38 12 -26 -42 -12 14 22 40 44 52 58 56 71 75 89 88 92 125 155 156 170 161 134 116 112 126 130 116 92 74 71 68 68 71 99 120 127 121 111 116
91 74 66 62 46 41 41 33 34 37 43 56 62 61 68 63 83 93 96 104 112 143 149 168 179 162 142 118 112 106 113 103 90 79 65 56 55 56 76 105 127 141 146 150
62 58 43 46 53 55 60 52 54 61 67 67 60 71 84 85 101 107 136 148 153 175 171 165 169 146 126 123 118 107 99 95 92 79 70 51 36 38 50 68 82 105 117 122
83 84 71 71 65 59 65 90 91 83 84 89 93 104 115 123 134 139 143 149 160 159 170 166 147 148 131 138 120 97 68 78 80 71 71 55 41 43 55 62 74 87 104 119
93 99 97 83 73 88 100 91 79 78 69 77 104 123 141 139 134 147 153 146 126 142 167 151 135 113 145 175 141 126 95 84 80 81 85 78 55 41 52 56 55 68 104 124
126 118 114 104 100 84 80 68 56 63 82 100 105 106 117 138 170 158 144 139 120 134 142 121 122 182 238 208 150 116 104 95 91 87 86 75 52 37 40 42 44 52 60 76
139 117 101 100 77 63 53 53 60 65 90 98 115 123 121 124 134 133 126 120 125 139 147 170 187 187 185 159 133 123 107 96 93 87 74 68 49 37 36 43 48 63 76 79
117 106 79 63 58 56 61 72 79 96 97 105 113 118 123 123 127 130 139 135 133 124 203 253 205 193 180 154 124 126 114 101 91 77 65 62 47 39 45 49 64 72 87 123

GFSNGP_con_3kmhel_024.txt.gz
Helicity
29 40 39 49 14 28 38 29 79 38 36 40 81 88 86 102 110 145 194 233 247 258 291 315 280 312 257 148 153 123 140 121 107 111 100 109 126 128 136 129 125 117 130 145
17 47 65 53 -8 19 32 31 47 29 18 27 72 97 94 108 132 129 158 199 230 249 277 270 278 253 234 99 133 165 137 109 119 119 114 118 125 132 130 117 110 138 135 157
32 72 71 35 14 57 84 100 92 78 58 97 100 104 94 92 103 101 120 156 224 247 253 249 279 263 142 150 187 163 123 122 121 125 123 116 124 126 124 128 134 134 137 139
62 53 66 101 88 82 49 30 48 44 48 93 117 139 119 95 88 74 78 152 197 232 247 267 273 184 192 214 209 140 125 121 129 128 122 121 123 117 127 128 135 123 148 129
78 73 82 48 94 90 80 82 97 60 59 99 104 120 78 88 57 48 92 142 177 209 242 278 293 218 209 227 171 136 131 130 119 125 121 116 117 126 132 139 129 133 141 131
114 68 50 116 114 94 70 68 133 113 92 79 76 116 124 86 52 91 134 164 233 316 335 354 267 270 247 213 142 135 136 117 119 112 111 120 123 138 137 130 125 129 135 131
122 109 96 92 92 93 110 176 98 54 69 68 77 86 141 102 96 118 157 236 298 329 343 398 415 402 188 156 132 119 102 102 95 108 119 120 126 131 131 114 136 147 137 127
133 141 104 90 66 95 140 98 100 98 92 93 91 163 144 142 172 184 220 313 374 455 500 496 452 203 187 179 130 78 76 84 93 111 126 125 117 125 136 117 132 138 141 114
95 127 109 38 67 102 113 101 88 97 113 117 116 128 151 181 251 339 428 535 622 436 639 448 247 131 163 155 82 71 71 71 90 104 99 116 115 120 118 121 131 118 105 87
106 69 39 40 56 67 63 68 73 70 81 97 97 120 157 213 296 382 440 536 592 679 491 417 303 164 95 80 62 58 56 69 89 98 122 108 119 110 107 123 123 104 89 78
75 46 68 64 85 85 89 83 80 78 99 115 118 112 144 217 289 427 528 603 465 486 235 239 187 113 61 51 56 56 66 84 98 105 94 97 111 110 100 103 111 93 93 86
112 153 104 86 99 77 78 103 119 119 128 148 142 199 242 306 391 536 617 529 551 513 249 87 66 58 44 52 64 65 80 97 104 97 101 113 105 94 119 96 123 90 75 95
114 81 65 65 102 146 152 158 166 189 221 243 286 332 420 459 610 707 673 531 484 188 82 61 46 37 48 67 64 63 68 77 88 98 108 110 99 95 87 112 111 106 99 92
159 125 107 156 135 140 163 194 232 278 308 321 359 458 557 597 579 582 363 200 58 43 41 38 33 40 64 66 62 52 62 89 83 95 119 112 104 93 86 94 110 83 95 87
166 138 145 152 173 202 207 204 232 256 285 360 362 385 430 426 312 114 -1 13 4 -7 5 35 53 61 75 68 60 62 87 89 107 103 107 113 111 102 99 106 127 70 63 121
131 144 153 185 184 185 229 265 273 241 220 190 184 150 125 53 -43 -72 -37 -21 -18 8 49 82 90 67 67 66 65 91 89 118 100 87 95 93 96 91 98 101 110 81 72 61
101 126 125 151 153 155 138 109 103 88 85 89 69 33 -11 -35 -32 -19 -3 27 61 67 76 97 92 78 97 90 94 111 120 109 107 91 84 86 87 80 78 91 105 84 69 72
176 139 99 69 66 84 77 84 94 79 67 46 14 21 25 34 26 38 57 73 85 89 79 92 126 111 129 127 125 141 145 131 122 121 109 95 86 78 81 81 90 75 68 73
93 94 101 115 107 105 86 69 54 42 48 59 63 64 59 61 53 60 78 92 92 94 77 117 136 153 154 168 168 157 140 136 126 120 128 108 100 89 79 72 81 99 87 81
125 118 102 99 98 95 94 94 77 78 64 60 56 63 63 73 80 88 102 101 94 105 110 121 132 147 152 175 175 145 123 129 128 136 119 103 102 94 77 61 63 69 90 104
123 113 118 117 114 95 104 88 81 90 80 74 75 73 73 74 83 99 106 120 111 138 135 137 139 142 147 158 155 145 139 127 127 123 101 95 92 80 80 63 55 53 66 83
110 120 114 112 120 121 109 105 95 81 80 77 78 80 87 90 105 106 130 130 142 176 167 166 149 142 149 218 161 177 145 102 97 87 80 87 84 80 77 69 54 40 53 58
126 121 113 120 120 106 97 99 80 78 72 77 83 94 105 115 133 142 141 163 170 157 152 149 135 129 144 142 158 163 151 121 115 98 104 97 80 85 82 77 66 41 37 39
128 135 130 113 103 113 123 104 83 78 73 66 85 104 119 133 149 148 168 155 146 147 146 139 133 115 99 122 136 141 179 148 117 100 100 92 92 89 85 83 74 46 33 38
128 131 135 124 119 108 95 80 50 57 70 80 99 112 131 139 151 141 145 141 128 135 132 116 117 133 124 131 195 194 179 146 135 104 93 85 82 82 80 80 61 35 36 38
148 140 124 125 109 89 71 56 53 63 72 85 94 99 98 100 102 106 103 107 108 102 127 142 161 151 165 169 153 180 174 149 130 129 108 90 79 70 71 77 70 49 42 50
150 141 117 100 88 75 69 60 70 88 103 103 93 96 97 95 89 90 99 117 133 137 130 129 124 122 101 114 116 136 146 148 133 114 101 85 71 65 62 67 64 52 46 42

GFSNGP_con_3kmhel_027.txt.gz
Helicity
35 56 55 40 27 15 -8 11 -24 8 17 27 35 66 85 109 112 58 130 140 167 203 224 209 247 317 315 395 345 237 155 116 117 171 142 109 100 113 110 139 115 104 111 117
45 20 14 19 10 -9 -11 -1 -1 5 -14 21 112 84 112 75 119 96 92 122 113 153 178 222 266 324 327 321 302 222 199 80 176 170 124 102 111 116 101 109 113 120 124 128
31 51 38 -2 7 6 2 15 44 41 36 50 115 84 85 95 124 92 84 99 102 113 165 195 276 347 288 316 233 154 145 159 183 149 115 104 95 96 104 116 134 122 115 158
43 36 27 48 73 83 77 45 34 55 49 57 108 166 95 99 100 111 84 73 87 142 210 225 277 322 330 258 260 239 146 180 153 122 103 93 91 85 91 105 127 124 123 166
62 35 48 25 83 71 80 91 181 162 154 148 189 95 25 60 91 90 83 86 113 162 198 224 329 405 292 325 318 304 174 153 114 106 109 86 80 85 101 116 125 150 120 173
88 58 28 108 107 88 77 71 226 175 147 114 82 95 110 155 161 82 68 94 119 128 164 294 290 311 345 379 404 298 356 179 116 85 84 84 85 91 99 113 107 137 139 145
65 73 68 134 100 87 105 235 180 107 90 89 78 102 193 148 116 91 86 100 154 201 283 394 416 434 355 477 406 269 171 84 71 64 69 89 95 94 91 89 142 158 186 150
103 99 74 131 120 155 201 112 134 100 96 106 94 97 104 104 105 128 121 240 332 315 380 586 702 807 670 473 301 170 87 70 54 60 68 85 87 82 72 87 150 165 211 178
88 104 141 85 113 116 118 114 104 103 89 91 86 74 75 119 132 148 147 349 332 480 664 818 809 547 347 441 342 126 80 33 34 55 66 66 90 87 100 117 132 147 175 146
126 106 106 109 96 98 111 111 101 96 91 86 94 95 97 124 220 205 238 398 520 582 605 648 512 617 412 275 120 79 29 14 32 50 84 97 76 79 154 125 121 149 146 132
98 64 100 58 146 199 112 87 93 112 108 120 122 110 145 243 310 401 596 577 508 499 484 543 477 312 198 106 60 20 22 33 53 75 63 85 87 114 174 125 124 128 120 134
127 201 150 137 176 171 113 173 157 150 162 232 170 224 289 436 498 531 439 445 483 559 633 412 146 43 56 40 30 40 46 44 69 100 106 98 111 129 124 127 135 128 114 134
166 150 111 143 213 172 183 209 220 224 234 239 306 342 408 388 396 418 421 420 387 264 64 18 12 21 34 49 59 50 58 91 90 89 85 125 124 133 131 109 122 124 117 112
174 137 152 209 202 177 193 189 216 227 236 221 209 228 247 235 210 194 156 75 12 -1 -3 8 18 13 31 49 66 75 73 76 67 76 118 124 124 122 123 119 110 112 117 91
180 189 208 222 267 250 207 177 166 147 114 101 78 83 89 98 96 86 33 -15 -16 -1 8 19 40 51 78 95 90 86 84 92 124 141 129 122 114 112 114 113 105 93 100 127
223 272 271 234 197 180 154 138 129 108 93 90 99 89 84 79 78 75 65 61 57 48 51 84 90 81 100 94 90 105 112 135 151 154 124 130 129 104 116 115 102 94 96 100
191 208 175 165 150 133 144 119 129 142 128 130 114 98 89 91 59 57 64 71 73 77 75 86 98 84 114 113 112 133 143 160 166 204 179 149 154 138 108 102 103 95 84 129
191 134 132 126 113 102 105 120 115 112 118 111 107 98 99 91 74 64 66 66 74 78 74 83 98 92 102 103 115 153 194 212 209 184 154 132 136 156 129 98 89 82 76 105
139 130 117 118 122 122 123 131 136 125 111 109 105 97 81 73 70 74 73 83 82 82 89 137 165 143 116 110 136 167 193 194 187 160 119 102 120 135 118 94 89 80 75 73
131 116 124 138 145 142 133 132 98 132 140 122 98 101 97 87 78 65 69 76 68 105 171 190 180 140 119 106 132 167 172 162 183 170 133 101 111 108 95 77 71 77 78 62
123 132 135 129 137 136 129 132 146 147 125 104 96 90 77 59 70 72 80 100 106 175 159 152 160 154 158 150 135 114 189 219 247 164 113 109 101 88 82 82 79 82 85 69
135 150 144 123 129 141 135 134 129 114 103 91 73 65 62 69 77 80 100 116 156 180 165 159 159 159 155 141 144 119 95 156 138 108 119 127 105 102 117 123 112 107 94 82
146 152 158 152 141 139 127 127 84 91 82 70 71 84 83 88 102 111 114 154 149 154 149 144 134 124 112 114 130 124 115 109 133 131 199 172 126 98 94 92 103 97 100 98
172 151 139 133 128 140 138 120 93 90 79 65 84 91 97 101 120 126 147 136 128 129 114 119 166 181 117 118 150 128 120 128 211 208 192 165 135 125 99 88 85 86 80 82
148 142 146 138 135 133 119 107 83 92 92 86 94 112 122 121 125 124 117 107 102 107 114 145 155 134 143 144 141 121 119 115 128 154 193 173 147 125 103 90 77 71 65 68
153 155 152 163 150 131 112 91 80 84 85 84 90 107 107 117 118 106 95 88 92 106 103 102 108 109 120 128 124 115 109 93 123 141 142 147 141 120 104 90 71 64 60 59
174 169 147 135 130 111 98 78 76 77 84 111 102 101 120 125 110 87 93 93 96 97 94 98 99 95 86 81 80 80 89 98 98 96 108 100 96 98 89 76 69 65 63 64

GFSNGP_con_3kmhel_030.txt.gz
Helicity
44 48 46 117 70 15 -8 20 -3 28 16 7 47 73 79 104 91 109 63 92 139 163 250 347 444 460 379 537 663 626 390 257 232 139 428 218 216 157 148 164 168 173 132 124
85 71 86 20 49 34 25 16 -10 -3 -3 19 52 98 123 172 189 146 140 73 107 176 176 290 341 396 463 570 637 604 299 238 404 247 201 328 205 158 126 78 103 141 146 154
57 100 95 15 3 -5 -2 6 31 44 48 61 85 84 157 183 121 116 128 143 121 130 156 152 251 330 429 552 636 584 299 354 159 433 247 236 134 91 92 114 138 144 139 142
65 67 22 -1 78 81 87 64 62 78 144 179 199 196 138 82 102 109 137 124 99 97 113 169 245 349 428 479 648 499 307 373 184 279 403 164 144 122 90 101 114 131 170 168
73 43 35 41 64 77 70 98 211 264 255 218 176 103 77 114 224 218 167 134 104 129 162 197 261 334 444 597 544 409 539 412 402 214 166 137 117 91 95 93 104 138 166 160
68 59 23 67 98 93 74 81 216 220 170 133 101 108 148 227 216 147 127 105 96 100 127 168 383 490 573 603 591 742 775 738 443 151 137 68 83 96 95 92 98 146 236 243
91 62 55 118 127 73 87 186 172 140 104 93 113 116 156 141 99 106 140 145 188 258 341 451 519 704 810 791 869 826 625 485 363 144 83 81 85 91 93 88 116 130 184 183
103 77 38 123 114 121 193 141 144 122 132 118 115 96 80 82 98 147 124 271 401 589 670 765 955 996 972 1040 922 939 573 225 104 65 48 54 76 71 107 100 105 149 201 211
77 67 107 90 182 126 157 134 114 126 137 138 124 111 105 97 115 246 309 372 560 658 740 793 791 793 833 880 458 304 159 52 53 23 25 38 73 105 117 137 146 134 164 184
138 71 90 113 136 127 232 244 147 115 122 161 160 154 107 157 290 428 602 654 610 594 503 431 433 477 429 256 107 62 39 7 8 38 58 75 85 106 113 179 186 136 154 160
101 87 145 215 381 401 271 233 236 188 237 254 189 173 291 413 509 601 598 619 488 377 333 246 159 131 92 20 19 1 8 31 55 79 72 79 88 96 150 158 179 179 168 161
134 273 194 283 309 278 311 268 241 224 282 279 331 373 396 428 388 319 316 281 232 114 54 85 58 27 25 52 42 51 62 79 77 84 96 96 93 128 125 110 102 117 125 155
264 230 210 276 262 252 273 249 235 249 249 226 234 224 236 220 187 144 117 102 99 82 70 58 76 87 58 58 92 97 89 90 101 96 108 116 137 138 123 127 104 95 123 124
207 197 333 306 325 314 178 176 196 214 222 208 206 208 179 161 122 101 87 84 90 105 114 101 76 59 72 82 90 119 113 84 121 138 140 180 154 153 148 130 136 121 104 118
226 300 450 446 321 248 216 182 209 207 195 178 143 115 93 83 85 83 93 95 93 76 62 62 74 76 83 112 133 138 153 161 160 171 200 219 190 159 149 146 133 140 126 119
378 321 284 269 252 238 227 218 206 154 134 163 156 138 110 104 111 109 102 110 98 92 80 83 85 92 95 95 104 132 147 154 181 230 248 249 213 181 174 177 170 138 125 115
262 244 238 244 216 203 247 253 233 214 176 143 118 107 120 122 117 131 107 92 91 81 82 90 110 88 124 118 117 145 158 170 175 209 283 271 217 175 161 164 204 186 124 102
194 197 193 213 212 227 182 170 163 157 143 118 110 114 129 140 129 115 102 88 82 79 101 140 173 155 148 154 157 165 175 184 192 210 222 242 208 160 134 134 151 161 116 89
214 222 232 216 184 175 169 157 142 114 128 129 133 146 128 113 98 86 76 69 69 92 135 118 117 104 117 143 167 172 191 207 190 192 198 242 215 153 138 116 123 119 100 87
216 226 208 203 203 166 165 160 129 150 150 141 117 116 106 84 54 63 42 43 75 149 149 140 127 132 143 171 176 148 154 155 141 137 115 385 204 129 117 97 107 91 92 83
185 169 146 157 163 152 141 141 154 153 131 103 101 96 85 59 61 52 58 53 146 138 121 107 124 162 155 121 108 119 126 130 129 109 92 101 67 111 158 110 114 101 130 134
162 161 150 107 122 141 150 139 126 111 108 91 74 63 54 63 53 61 69 143 113 133 107 116 165 164 104 112 115 125 131 145 134 111 104 91 144 211 186 133 120 113 95 87
156 148 151 167 138 130 118 124 76 83 85 63 51 46 46 42 68 67 91 127 122 124 121 139 111 87 120 109 122 131 140 133 142 165 190 221 307 229 171 153 151 128 104 82
141 149 150 130 107 137 154 144 114 93 74 65 65 49 68 69 86 127 131 133 136 124 109 104 85 87 88 91 105 121 156 140 113 97 53 73 99 140 150 161 148 126 91 71
170 153 143 122 157 159 156 135 115 124 113 96 108 124 111 123 123 120 120 117 112 106 95 94 88 72 71 76 84 92 105 98 66 68 86 94 122 148 125 119 102 97 85 68
150 179 174 205 186 168 150 130 118 116 103 106 113 113 111 129 136 124 119 114 105 100 89 85 87 79 72 73 75 88 82 74 53 45 62 72 98 93 75 87 85 85 84 71
254 226 174 167 169 162 144 124 119 104 104 129 109 81 107 145 133 132 126 111 102 95 87 85 86 84 73 71 80 80 70 57 48 30 32 40 45 50 59 64 66 66 70 69

GFSNGP_con_3kmhel_033.txt.gz
Helicity
63 19 29 23 67 71 30 52 120 37 26 49 22 56 136 102 109 104 119 120 143 289 412 445 503 498 507 585 631 716 725 617 477 425 395 320 401 494 260 141 119 114 98 115
93 88 86 119 89 60 87 49 26 28 61 26 10 67 115 139 171 184 189 206 200 145 222 345 427 466 516 597 647 714 705 572 508 633 542 450 484 267 168 103 82 72 105 123
87 102 76 44 32 39 39 32 17 19 63 138 161 143 142 163 169 211 202 203 150 99 106 134 227 307 469 547 678 680 581 525 531 536 449 508 582 388 193 118 92 93 80 115
77 104 90 24 54 54 74 125 146 211 173 149 188 246 228 170 161 195 197 222 226 159 103 107 186 382 475 519 603 575 496 528 605 607 647 651 633 349 223 141 130 95 90 125
103 93 61 46 96 61 69 140 147 186 237 251 216 133 160 144 193 222 172 141 129 122 124 204 284 389 515 560 558 636 735 776 805 779 893 837 616 206 98 114 89 65 111 130
111 86 40 40 72 102 103 128 143 151 155 141 122 112 56 116 154 171 207 242 292 386 439 494 524 678 795 834 889 863 852 979 1111 987 796 374 155 116 109 69 49 97 140 165
130 87 63 61 88 83 115 91 187 162 122 117 88 63 83 123 146 232 212 286 413 545 560 588 650 760 869 921 1001 945 978 767 609 264 145 116 76 58 74 76 94 101 115 134
130 95 43 89 127 105 109 208 163 160 161 175 161 161 159 150 182 299 374 399 436 503 538 557 600 730 732 759 672 624 489 272 82 132 90 49 37 52 80 97 111 116 142 137
65 50 32 110 126 142 186 220 220 249 240 189 207 196 222 307 350 363 405 412 397 401 389 322 275 260 324 239 193 160 164 169 118 81 75 55 65 80 86 91 123 153 161 161
109 83 99 230 438 431 404 338 318 275 241 225 244 257 298 360 416 470 433 369 271 233 204 169 136 121 138 162 160 155 145 131 101 73 75 82 87 87 110 119 129 158 171 167
113 178 331 410 422 415 472 462 383 340 310 289 305 320 313 332 339 308 255 213 207 204 180 203 209 184 135 103 146 151 107 84 77 87 90 89 98 106 109 122 144 161 187 195
157 203 285 319 368 369 402 373 329 277 315 322 286 284 288 302 288 301 293 244 230 218 188 154 121 110 115 100 85 77 86 100 105 105 105 112 121 129 108 110 104 109 117 163
227 297 369 388 356 320 323 288 297 304 271 287 310 300 308 303 264 224 206 175 157 134 105 100 107 107 79 68 77 105 114 107 127 128 140 149 159 168 170 155 101 97 93 95
335 353 353 298 288 269 278 276 299 302 293 286 257 236 201 167 143 153 141 108 116 117 110 91 89 88 74 72 110 125 132 137 165 177 184 185 199 229 233 200 176 171 157 107
386 421 482 395 309 270 256 250 297 285 262 250 241 206 167 156 161 151 129 136 125 121 114 105 108 113 104 104 100 111 147 190 215 248 262 255 288 271 269 242 233 186 169 162
404 380 364 336 305 290 274 267 267 244 246 248 219 207 183 168 162 154 142 130 124 136 119 118 129 131 132 127 141 155 172 183 202 211 211 230 250 275 293 244 221 194 181 170
344 298 306 284 256 334 343 324 300 251 208 204 189 171 178 163 164 170 152 127 111 114 126 112 126 116 102 120 132 135 137 144 173 187 198 212 217 231 222 225 199 194 177 161
266 259 231 346 356 322 296 266 221 195 189 163 153 146 147 157 151 121 101 99 124 151 157 136 117 110 125 156 183 171 162 163 163 167 157 135 143 172 239 246 256 221 131 141
274 309 371 339 298 278 240 201 198 177 165 146 136 136 116 96 84 84 79 127 144 123 104 78 77 116 154 175 151 134 143 155 156 150 152 139 131 115 104 112 272 147 114 121
412 368 345 324 273 228 213 168 186 199 167 146 131 139 126 111 94 107 98 131 118 81 73 110 155 138 130 131 136 126 135 137 129 135 153 172 165 121 105 95 85 106 106 99
266 267 263 245 233 221 212 177 156 156 144 126 125 116 107 86 108 94 109 93 97 77 84 138 124 100 116 134 110 113 118 127 125 123 158 199 181 113 92 87 156 200 217 177
216 188 164 162 184 189 161 152 142 116 107 99 86 95 97 95 86 78 53 82 76 99 111 119 106 125 135 120 104 95 99 90 90 116 150 182 174 169 252 360 401 293 227 180
146 143 147 144 145 134 121 108 83 76 83 64 58 63 59 50 49 51 59 85 96 112 122 120 120 112 106 105 94 84 84 70 75 103 127 138 138 74 14 55 56 72 74 105
165 182 175 141 117 120 139 97 73 106 92 47 44 50 62 64 66 83 91 126 140 137 128 137 122 107 84 75 88 80 81 79 63 70 82 92 87 64 4 -23 40 79 76 96
161 148 140 158 191 174 166 176 177 158 144 142 135 103 113 100 82 84 122 128 140 134 118 111 114 103 80 67 66 77 74 77 68 56 60 58 48 40 45 50 75 101 93 71
211 238 273 284 233 198 182 169 163 155 141 129 105 105 148 146 154 155 146 149 143 134 113 89 98 90 79 68 61 64 58 63 72 58 56 54 53 45 42 45 50 49 55 58
328 267 283 273 224 191 172 164 165 150 133 113 91 117 158 179 180 165 161 144 140 120 107 100 96 84 80 80 64 61 52 46 64 64 42 47 56 54 52 46 36 30 32 35

GFSNGP_con_3kmhel_039.txt.gz
Helicity
90 91 109 94 96 123 144 119 126 17 105 62 64 51 66 46 124 108 107 136 147 163 147 165 211 313 354 412 427 450 472 468 547 555 548 559 596 667 548 699 637 715 564 554
153 165 154 100 90 107 137 140 107 93 71 59 81 137 192 183 234 264 246 214 165 89 118 181 252 310 342 347 388 474 489 539 614 589 621 622 663 691 695 670 605 610 185 137
115 168 163 134 110 127 142 151 130 160 92 110 196 234 269 261 248 223 213 200 178 154 130 84 85 157 273 362 432 510 573 591 628 661 645 699 697 731 640 578 230 125 121 140
133 190 103 115 163 124 142 177 168 175 193 180 223 283 309 206 167 160 133 134 133 126 116 111 110 188 271 324 386 464 494 532 597 699 768 773 739 653 467 186 113 126 126 82
191 178 144 116 102 142 147 138 171 230 248 221 234 270 269 218 190 144 132 141 136 135 127 128 159 209 336 426 509 593 631 706 762 782 775 655 464 428 197 121 137 158 123 145
215 194 135 67 72 139 120 139 109 139 135 159 194 164 99 122 135 168 177 181 188 198 221 234 213 249 376 408 510 555 563 650 739 863 747 267 212 121 133 160 150 162 153 124
259 203 185 110 78 140 173 57 186 159 143 145 123 95 123 163 182 198 204 217 227 255 248 212 206 275 328 343 375 338 347 317 204 153 159 149 133 150 170 158 157 137 124 125
288 255 138 141 196 168 94 179 159 154 168 191 169 162 153 177 208 226 241 251 255 291 292 276 277 287 292 315 258 242 212 169 149 154 144 131 125 127 141 142 139 131 151 150
180 128 147 99 79 138 111 118 115 156 146 169 172 157 193 201 235 276 310 316 295 310 331 339 344 311 314 248 217 211 200 190 166 135 114 115 134 136 139 138 159 167 187 186
211 153 128 119 162 167 167 180 187 195 221 208 251 245 256 277 322 355 352 358 325 345 346 354 292 266 238 214 202 199 167 132 117 120 119 123 129 134 156 168 183 190 204 205
228 175 197 188 203 260 314 320 362 357 301 285 321 313 332 347 360 364 373 369 343 327 312 283 251 247 227 168 138 128 118 119 122 126 129 136 149 167 183 199 219 225 241 249
164 191 214 211 264 301 376 361 351 379 391 353 343 349 362 383 366 362 373 344 330 310 265 246 240 225 196 164 141 133 128 128 128 125 125 124 129 122 125 154 174 193 199 243
173 229 275 413 421 378 404 378 362 365 350 379 364 370 377 382 362 380 359 333 307 266 250 238 223 223 194 169 152 146 128 113 97 96 99 108 120 136 139 115 127 138 156 164
351 531 425 393 347 410 420 408 418 437 416 397 371 375 387 398 385 377 341 270 240 240 244 216 200 204 170 135 128 122 114 119 108 112 124 136 150 161 180 194 182 154 149 136
366 298 367 461 484 460 433 440 491 460 419 411 364 345 339 360 341 295 245 215 212 219 219 186 180 172 130 118 113 108 100 101 111 114 130 144 154 169 177 183 188 183 153 123
413 382 421 484 460 431 446 432 443 388 382 362 365 359 343 312 267 230 210 185 201 204 174 153 144 130 103 97 94 86 93 106 112 113 119 134 147 158 172 166 151 144 143 131
484 465 458 459 403 361 364 359 366 339 340 340 331 305 276 247 222 207 200 199 195 174 140 127 118 103 92 107 103 85 92 107 135 137 148 154 153 149 141 147 109 92 96 103
334 343 314 336 311 348 381 383 349 314 333 311 295 281 247 202 176 169 168 156 144 142 135 128 117 112 122 133 130 125 126 132 137 137 143 144 135 125 120 125 121 103 93 199
248 238 224 261 301 353 351 334 341 340 314 291 276 226 170 148 139 143 145 159 152 138 131 117 121 121 132 135 139 129 134 150 152 157 154 145 133 119 105 105 111 118 103 113
303 290 317 328 331 311 298 310 323 309 236 200 174 172 177 147 139 139 134 154 130 94 117 111 112 111 127 143 163 150 157 164 167 160 154 144 135 115 109 101 94 90 86 74
305 297 324 335 341 329 334 265 242 215 154 143 156 152 147 125 109 97 112 114 110 104 113 117 114 117 135 130 142 148 159 172 169 158 156 137 117 111 114 103 87 74 69 63
260 309 324 314 317 313 233 201 189 182 167 169 158 142 139 133 128 134 116 109 106 102 97 105 116 126 130 135 148 150 155 160 143 146 138 121 112 103 99 90 85 79 65 56
238 239 243 231 203 193 169 161 159 152 158 146 125 109 110 103 96 99 95 105 98 98 102 115 127 144 146 144 146 151 152 152 136 131 121 109 102 93 85 78 75 72 67 64
210 199 184 194 209 208 191 147 159 166 172 154 129 98 104 117 131 134 127 111 103 109 120 125 139 164 169 158 159 154 152 138 122 119 108 94 88 85 82 75 72 70 71 69
185 196 192 181 178 176 188 190 201 173 172 169 159 141 131 116 108 126 148 126 129 144 150 168 189 196 174 163 151 154 138 127 106 108 100 87 81 77 76 79 83 83 80 77
208 231 244 238 243 246 248 233 220 201 189 190 171 146 148 163 168 159 151 153 155 158 157 169 180 182 168 145 140 133 130 124 111 99 93 84 79 76 79 85 104 102 87 80
331 336 339 362 344 326 287 243 220 208 199 194 177 138 138 160 157 161 174 174 158 159 159 173 170 163 151 145 126 123 123 114 101 100 89 84 86 85 93 107 105 100 88 80

GFSNGP_con_3kmhel_042.txt.gz
Helicity
84 83 97 78 96 122 131 124 132 80 110 28 41 51 52 50 95 96 81 61 42 30 45 103 110 141 148 205 253 294 315 311 343 406 438 450 454 552 591 595 613 621 776 541
134 141 152 105 76 85 91 107 111 114 94 56 73 101 108 119 177 177 167 176 179 165 128 111 92 108 150 202 252 295 316 318 356 431 455 498 609 679 726 591 777 515 240 173
96 180 173 89 97 138 153 198 183 188 149 165 167 164 152 184 224 234 227 225 232 222 200 189 166 133 155 205 242 282 315 328 375 429 491 548 609 631 664 577 533 155 161 143
129 201 52 116 183 171 171 158 166 189 173 201 217 237 293 321 292 266 232 215 182 161 162 182 171 190 197 221 250 292 331 359 396 463 540 570 605 616 477 332 125 103 97 128
172 159 147 140 163 142 129 87 114 140 204 278 321 375 359 275 230 175 138 110 121 162 178 206 224 218 252 281 306 352 362 373 386 436 490 517 529 468 193 85 125 96 109 113
192 171 124 61 115 162 198 142 132 133 166 234 226 202 148 147 133 134 142 155 167 190 205 220 188 177 225 224 264 281 284 358 410 417 458 260 120 100 131 128 112 115 111 116
262 189 157 120 178 208 216 126 165 172 143 148 134 120 140 137 176 166 156 172 195 233 238 213 193 211 243 235 240 181 183 187 181 179 138 113 104 123 116 105 105 112 122 117
289 250 136 181 317 262 132 91 168 179 158 181 169 181 188 183 173 158 187 206 209 247 248 213 207 245 266 247 171 187 188 193 188 171 150 136 124 114 110 116 118 121 142 140
191 161 163 167 155 139 125 88 128 184 164 215 230 193 209 219 218 213 221 252 260 279 316 319 294 255 246 188 180 177 188 179 165 145 130 124 122 119 122 130 144 152 164 168
229 174 178 187 137 104 116 97 134 151 205 216 261 260 270 260 253 263 266 294 309 351 357 349 303 294 259 222 204 201 199 187 165 153 141 134 127 131 140 148 155 150 162 172
242 205 207 132 114 130 176 202 262 291 257 265 319 293 289 297 307 304 317 341 361 370 353 347 311 307 264 213 173 184 175 157 145 130 126 118 118 117 130 140 154 163 174 192
198 254 305 142 180 195 256 272 283 361 363 324 309 312 332 352 336 345 374 378 395 376 370 328 283 270 243 210 177 165 158 144 128 112 107 100 94 85 83 88 105 124 136 183
204 235 243 253 344 306 358 339 345 359 336 380 356 376 391 415 399 421 414 404 393 357 299 267 249 239 213 185 151 147 125 108 89 84 82 80 83 82 79 81 93 109 111 118
258 376 339 279 285 357 427 446 455 467 428 408 432 447 459 473 455 441 420 367 329 291 266 224 215 212 168 140 120 110 100 107 93 91 96 100 98 103 106 111 108 93 99 112
362 255 211 389 457 472 465 484 537 509 479 485 442 444 432 447 426 388 344 297 278 262 225 196 182 167 124 112 109 106 97 90 92 88 91 100 99 99 109 118 136 134 115 82
359 189 285 449 499 501 527 528 558 518 460 435 444 439 428 406 379 340 277 215 213 223 180 156 144 128 111 111 107 98 99 113 103 93 100 107 110 118 130 144 139 131 111 95
438 305 378 467 487 483 476 468 531 550 343 366 403 408 392 397 370 320 278 223 186 159 139 133 125 109 106 107 96 93 79 90 110 111 121 129 136 141 142 138 140 116 92 78
176 241 269 352 412 478 527 535 550 394 360 360 339 360 381 351 316 262 193 151 140 145 138 121 105 98 102 110 107 103 104 114 111 120 134 146 148 145 137 143 133 114 95 76
231 276 284 343 377 419 421 391 357 280 341 357 368 391 361 288 202 166 133 138 128 120 117 96 99 98 109 121 117 113 109 123 133 148 154 159 155 153 148 142 119 103 97 87
328 356 371 367 347 338 309 319 330 319 318 380 392 297 230 187 145 135 136 163 134 105 90 92 89 96 103 108 122 117 126 138 155 154 147 150 152 148 132 119 104 100 94 85
272 289 290 261 285 315 272 244 259 313 312 249 211 184 152 129 127 116 125 123 102 84 85 83 87 80 94 106 125 133 146 147 142 143 164 152 143 130 124 116 105 101 91 80
215 248 262 281 294 296 287 260 276 268 239 213 185 164 163 155 157 163 137 106 87 80 87 86 88 105 121 128 136 135 141 150 145 145 154 138 130 114 106 106 98 90 81 69
222 243 267 264 253 241 243 238 232 211 189 156 144 142 151 134 119 116 114 108 105 97 96 97 106 135 141 137 133 137 148 148 143 132 132 127 113 104 98 96 94 92 80 74
211 232 231 200 211 226 233 205 200 187 191 192 181 159 146 152 161 147 143 134 129 128 117 111 131 143 136 130 132 134 136 140 134 124 124 118 113 107 103 99 98 91 87 91
186 165 177 192 199 187 183 181 213 217 220 218 203 174 159 154 140 129 147 144 140 126 114 124 140 150 143 131 127 128 140 143 136 127 122 117 107 104 101 104 101 91 93 99
201 231 240 238 229 216 210 212 226 217 207 202 188 165 173 180 178 169 163 153 135 115 106 127 136 139 133 129 128 141 138 138 134 122 124 112 99 97 97 94 90 94 96 100
274 256 258 281 271 256 246 228 208 196 182 165 161 146 147 166 166 156 145 134 119 115 118 113 121 124 139 152 148 134 126 120 118 125 124 105 93 90 95 89 94 96 94 99

GFSNGP_con_3kmhel_045.txt.gz
Helicity
72 75 100 72 89 118 138 145 143 75 110 44 52 37 31 34 60 87 111 143 119 89 83 81 73 84 97 106 130 145 163 175 176 157 155 151 201 273 327 414 525 525 495 536
90 115 55 36 43 90 104 131 101 92 75 57 96 90 76 71 92 137 176 207 231 225 201 178 151 141 140 147 155 149 161 164 159 173 242 301 354 413 462 493 421 558 475 366
97 116 97 20 72 141 151 159 155 156 123 157 140 136 156 162 169 208 232 259 261 231 217 188 161 132 140 142 140 148 150 149 170 217 285 321 356 399 431 461 407 414 171 131
148 200 93 71 126 114 108 110 161 160 134 110 149 247 285 256 203 254 294 294 236 190 174 164 141 148 154 166 169 166 163 160 177 241 301 321 368 401 374 313 179 119 97 86
167 172 145 82 126 139 153 65 142 122 143 177 262 323 306 308 286 278 219 185 169 150 137 134 163 165 190 182 155 150 151 166 170 213 269 304 290 199 128 104 68 86 92 76
197 163 107 81 117 175 168 79 153 155 166 221 264 245 221 222 188 184 172 149 125 124 156 208 202 174 195 178 178 167 153 163 147 180 174 139 126 120 101 91 97 98 87 97
257 191 139 118 158 210 171 160 61 131 172 222 178 104 185 161 179 174 143 134 143 188 231 215 177 190 229 206 199 162 154 150 145 157 165 165 145 123 110 112 108 116 118 112
299 251 132 200 300 232 178 123 108 134 171 191 163 195 233 193 187 168 165 176 201 243 254 232 224 237 239 244 177 165 168 175 191 187 157 132 132 130 126 126 126 120 124 119
223 260 238 149 162 210 181 129 100 160 201 231 227 208 222 234 199 193 205 229 224 262 297 294 265 221 233 209 180 193 209 196 173 159 150 138 138 136 127 126 126 125 124 125
238 184 195 167 158 177 175 120 89 158 232 222 233 232 262 262 253 253 237 248 264 297 306 293 276 282 260 216 197 206 196 174 161 158 144 142 129 130 133 137 137 139 150 153
238 210 183 117 152 193 189 157 176 228 233 252 296 280 282 284 277 280 296 304 288 298 308 329 321 332 278 233 193 192 177 167 158 141 144 135 134 133 135 143 168 169 175 175
206 190 205 149 233 239 203 179 195 304 302 259 296 326 318 345 326 327 339 323 335 332 336 323 319 318 287 235 199 177 171 153 145 133 127 121 116 112 135 131 138 170 189 181
170 196 206 121 161 236 230 241 268 325 338 397 339 382 374 438 389 393 366 351 349 341 323 306 322 310 247 203 177 168 147 129 106 102 96 100 99 98 98 95 88 115 127 139
154 150 187 103 161 253 286 335 377 396 396 408 438 456 497 499 434 401 389 369 358 339 348 329 304 271 191 151 135 127 112 116 95 92 95 99 99 98 96 104 99 104 116 129
238 233 192 335 297 337 352 374 433 453 470 519 508 542 505 483 466 438 411 394 384 384 356 284 254 206 146 122 123 123 106 100 87 86 96 96 101 105 109 115 125 138 142 149
324 241 276 280 282 307 366 380 463 478 525 565 616 600 575 556 485 422 372 363 360 369 293 250 202 156 128 117 106 97 89 111 96 89 96 107 109 112 125 142 162 164 160 148
275 268 254 315 255 385 403 413 453 463 531 576 603 623 678 560 363 300 383 406 395 311 219 174 145 116 118 114 103 86 80 82 86 89 105 110 112 132 150 166 163 157 140 119
247 239 240 310 286 310 339 376 422 475 525 570 585 622 386 250 297 393 354 314 251 217 179 138 117 117 121 112 98 80 77 80 94 108 108 125 144 159 163 166 157 161 135 106
188 158 233 165 244 326 362 414 468 480 515 498 514 343 355 404 335 271 185 189 175 160 134 119 122 113 108 106 81 79 88 106 115 119 126 145 159 168 167 165 160 140 125 110
263 293 282 285 320 385 414 397 424 427 405 371 340 365 373 286 228 212 180 175 144 132 117 111 101 99 88 93 91 93 111 120 125 132 150 163 176 185 171 155 142 129 115 104
242 244 287 327 340 330 326 279 316 327 302 305 255 202 214 205 180 148 138 141 129 115 110 97 88 81 82 77 88 111 131 141 142 145 160 180 186 176 156 140 129 119 109 102
226 251 271 296 328 327 334 294 267 251 249 257 239 242 229 178 152 164 158 139 119 105 99 93 83 82 84 88 117 126 143 154 153 149 161 178 179 163 144 126 118 110 101 93
181 199 236 268 270 256 242 269 271 230 219 198 191 167 146 142 141 149 156 140 126 103 92 81 77 90 105 112 127 139 144 145 150 158 165 167 157 143 127 113 108 97 90 88
183 198 220 222 240 262 268 221 197 200 215 203 188 174 174 189 193 177 170 159 140 112 109 95 91 111 121 135 145 141 129 134 150 157 145 138 138 130 116 108 100 95 89 70
193 181 163 164 181 179 191 188 202 198 201 209 207 196 181 177 156 133 142 141 134 124 119 117 119 130 138 143 136 130 129 140 142 140 135 138 133 122 113 106 96 84 78 62
201 205 213 220 178 159 160 163 186 185 182 189 177 157 148 146 145 144 154 156 150 144 136 116 111 123 129 134 132 141 135 128 128 133 132 129 123 113 109 99 87 80 67 62
235 225 224 256 245 211 189 175 171 174 161 148 137 124 125 133 144 150 153 151 145 134 125 113 114 123 120 129 131 132 133 136 133 128 122 121 115 108 102 89 79 72 63 63

GFSNGP_con_3kmhel_048.txt.gz
Helicity
22 11 4 10 2 -1 10 0 37 31 7 30 28 31 53 91 64 65 76 91 118 126 124 125 136 141 164 181 158 167 176 195 210 221 206 191 179 195 191 193 225 237 303 340
38 20 12 15 -7 -11 -4 -6 26 20 0 22 18 73 77 98 78 79 91 109 154 176 177 199 206 216 187 207 214 194 191 200 188 177 188 196 201 202 214 233 253 241 229 224
23 49 52 82 23 6 15 27 43 -5 -3 3 46 52 88 125 123 121 142 176 209 248 275 300 279 235 221 184 163 179 198 203 191 173 169 166 170 179 224 258 246 188 141 149
77 95 86 47 71 2 14 16 39 -28 -23 -9 43 126 141 144 171 209 226 229 268 284 299 263 214 191 161 164 190 201 189 160 131 127 148 174 208 226 217 189 169 148 119 90
138 83 77 65 96 104 73 12 46 20 -22 82 111 172 175 215 213 242 259 276 275 247 197 161 161 167 181 192 188 178 163 160 157 138 143 150 142 144 141 137 115 65 81 99
144 115 73 36 86 83 97 -27 22 31 23 111 160 143 148 229 249 269 272 246 192 156 153 164 164 166 195 203 192 180 165 170 152 129 132 154 144 128 104 79 101 99 100 102
114 136 111 127 148 138 93 57 74 54 40 109 133 76 206 250 244 229 213 188 169 171 185 188 180 198 237 214 222 205 203 195 196 198 184 134 100 95 106 106 105 124 124 121
157 154 85 161 222 163 109 81 81 68 77 103 121 170 203 260 232 203 203 198 187 198 212 212 211 224 246 241 206 199 205 202 179 152 131 126 123 116 109 127 130 128 136 124
119 130 160 140 118 96 109 90 108 79 122 120 215 167 212 257 236 216 207 200 193 222 261 267 256 243 265 223 192 196 199 200 181 166 149 137 144 140 137 131 133 138 135 143
87 86 73 69 72 144 117 123 143 112 134 192 234 205 228 238 243 234 214 223 246 276 297 309 298 293 259 243 217 217 223 229 200 210 170 156 140 141 147 149 142 144 156 161
67 64 76 59 87 103 138 159 155 130 142 161 251 235 243 263 257 254 269 273 292 321 326 329 327 330 287 248 210 243 242 224 197 174 163 149 153 152 154 173 155 145 170 160
160 48 87 17 74 97 86 125 143 155 183 208 252 291 273 278 296 315 329 355 362 355 359 382 377 343 294 257 232 245 250 218 194 165 151 149 145 122 140 137 135 154 168 154
94 97 88 111 126 96 37 129 162 156 182 260 281 299 302 357 337 373 379 401 416 425 417 395 357 337 319 307 280 246 218 181 158 148 144 142 126 124 126 110 79 75 104 122
137 114 95 110 123 110 116 178 196 245 267 285 327 346 382 410 451 441 445 453 433 427 429 400 363 374 320 272 234 203 193 179 142 133 129 117 118 115 109 112 104 104 131 147
138 155 154 135 188 211 190 181 272 278 349 395 393 440 479 491 539 564 532 497 497 483 418 375 349 364 255 205 185 180 154 133 117 114 116 109 103 99 102 95 98 104 124 142
180 166 162 173 173 200 205 264 316 355 369 410 448 465 565 653 685 725 749 764 724 552 325 264 286 263 185 155 148 121 123 127 105 99 98 102 104 104 106 103 111 129 142 158
142 152 182 182 166 215 249 272 305 284 413 397 489 615 633 678 712 726 705 685 538 338 251 210 199 165 150 129 111 108 108 112 104 101 110 111 109 112 112 119 125 135 146 171
123 147 127 141 202 276 293 275 303 503 585 474 506 590 614 604 584 541 571 457 383 320 210 166 143 137 127 127 126 123 119 111 107 110 106 120 128 132 136 136 138 147 156 165
251 236 219 216 234 262 320 359 493 442 439 485 552 574 532 552 548 533 396 251 226 219 180 131 120 119 136 141 123 119 114 109 108 118 127 131 143 158 154 154 155 158 166 162
312 327 313 371 379 374 361 348 388 469 446 440 469 506 511 478 388 267 227 272 228 178 128 105 108 117 119 126 108 110 112 117 126 131 148 149 169 169 167 157 158 167 181 170
146 173 228 286 300 294 293 311 339 343 338 362 366 320 255 233 255 251 215 199 152 127 126 112 114 112 111 100 96 110 110 116 126 138 153 170 175 177 173 173 183 185 174 150
156 191 213 226 284 314 268 253 285 316 301 274 239 245 248 226 207 219 208 147 142 128 132 130 128 134 118 84 109 106 114 124 134 144 164 179 189 197 188 184 185 175 149 124
162 175 200 234 239 248 276 287 277 238 207 192 184 175 168 163 147 134 150 159 147 143 140 144 142 130 112 98 112 116 124 129 142 164 182 187 189 184 182 179 171 145 126 107
155 178 188 176 176 214 252 213 196 192 196 190 183 162 146 150 173 173 176 181 171 147 155 140 132 126 101 116 124 139 142 151 155 169 178 185 176 175 168 159 141 121 102 91
164 166 165 162 170 153 159 159 175 175 171 173 171 164 161 158 146 127 134 151 146 128 140 139 124 114 109 119 133 144 153 162 177 186 177 171 166 159 148 132 115 101 97 85
159 159 171 184 153 133 135 134 150 142 126 134 139 134 131 128 127 131 149 157 150 144 151 135 119 110 115 121 142 157 173 185 175 169 165 152 143 137 122 111 99 91 85 76
211 195 181 197 198 179 170 167 158 164 160 146 128 120 117 114 124 127 135 141 149 147 140 139 126 132 144 162 166 172 172 166 166 159 151 140 131 115 104 96 89 83 75 65

GFSNGP_con_3kmhel_054.txt.gz
Helicity
90 43 34 32 33 16 -34 37 115 33 7 -12 7 139 53 76 111 101 65 81 95 140 155 127 129 147 225 335 382 429 455 437 382 332 283 280 296 320 330 342 338 319 315 311
114 50 -1 17 26 47 30 -4 -11 9 42 28 39 54 87 56 -2 117 97 49 75 124 217 226 183 251 357 320 265 268 308 282 250 240 276 293 286 262 266 270 271 280 267 249
115 84 47 42 -2 -1 47 33 30 25 14 37 -26 52 34 77 63 76 121 113 133 114 152 278 306 322 260 262 245 271 311 296 325 343 326 279 239 247 242 242 248 276 261 226
169 110 53 80 49 62 66 53 40 12 22 23 -1 39 48 64 137 112 190 272 248 277 310 355 380 391 445 374 360 319 327 311 279 241 214 221 274 323 305 290 273 258 239 200
260 166 162 102 88 102 82 40 25 26 12 30 15 118 104 116 144 174 291 381 365 381 346 381 447 360 322 327 312 308 278 214 194 208 272 291 295 303 313 274 209 164 148 124
246 202 187 177 90 29 42 54 47 35 25 39 57 101 111 106 180 293 355 344 316 315 310 296 274 316 315 292 255 239 218 230 248 277 347 349 298 243 190 162 140 152 187 218
209 227 168 118 46 14 56 47 29 35 37 48 121 130 133 186 269 291 284 311 331 314 279 268 272 287 294 274 258 252 274 339 412 378 292 228 189 169 151 238 283 243 228 215
140 195 124 98 42 59 55 6 77 47 72 58 113 138 143 194 303 320 313 311 308 305 286 268 270 290 290 280 305 370 378 343 303 250 194 162 198 262 268 258 236 225 233 235
202 191 243 78 103 88 76 74 27 33 53 70 162 154 179 237 283 282 280 294 245 325 307 275 278 270 307 339 362 367 346 272 207 201 242 246 281 266 307 297 293 257 230 227
85 97 112 164 263 74 64 108 85 79 45 85 197 212 213 198 234 294 283 208 292 318 329 320 311 322 373 398 338 302 335 330 294 302 314 363 362 371 350 321 271 239 248 244
26 16 31 61 57 9 47 108 69 72 101 95 153 215 236 204 262 263 265 283 324 342 376 396 419 450 388 351 359 407 400 380 404 359 365 483 438 355 282 259 235 244 241 220
57 34 46 47 66 76 51 86 63 77 65 30 117 216 208 237 268 257 273 366 408 407 461 502 515 487 444 421 443 497 538 585 481 468 478 383 284 279 252 148 152 166 175 182
21 20 28 60 48 18 62 75 82 91 107 78 123 194 228 265 299 302 426 480 484 543 574 557 528 547 596 588 646 734 671 546 501 492 490 435 335 198 138 107 83 92 108 117
107 98 90 99 99 74 70 69 91 118 110 172 157 228 274 288 326 377 554 575 607 647 644 665 769 839 871 913 830 657 619 578 578 579 474 378 284 223 186 165 119 86 63 37
141 102 111 137 90 52 85 107 123 129 177 204 306 301 326 397 405 543 760 848 847 790 793 772 749 780 717 682 761 738 726 762 675 533 343 270 239 191 160 141 138 153 162 121
234 173 127 90 74 99 84 81 144 211 251 353 430 486 542 608 733 869 924 1009 995 1026 1069 1062 948 856 789 715 740 762 700 482 259 236 226 190 159 150 143 144 148 159 168 185
177 192 188 158 114 105 96 116 139 192 333 512 668 851 1030 1122 1214 1270 1382 1423 1321 1169 977 834 841 893 832 705 389 226 222 245 218 199 196 162 148 143 156 156 163 163 166 181
208 226 232 155 126 141 194 260 321 319 356 465 649 811 922 996 1020 1010 1027 948 836 713 577 472 379 319 284 263 254 236 232 215 193 172 149 161 173 165 167 163 158 166 179 187
187 166 190 211 214 183 167 257 286 297 389 469 600 690 696 730 742 696 552 484 424 416 367 296 287 277 251 237 195 183 165 148 137 149 169 164 139 152 172 175 201 194 183 186
234 241 258 307 341 287 262 277 355 355 335 434 514 523 568 553 455 410 373 353 279 236 204 198 198 184 166 160 140 127 134 143 155 157 148 151 148 188 174 169 169 178 200 202
224 244 290 341 351 349 352 356 369 393 392 352 352 336 323 273 243 208 207 205 172 153 141 124 114 104 101 99 100 117 139 155 156 157 165 159 173 167 186 201 210 213 209 211
182 196 212 222 245 251 232 212 215 213 208 209 200 192 198 175 167 170 147 113 74 56 70 90 97 136 111 114 126 122 128 136 150 161 172 187 196 204 206 217 228 224 227 214
160 174 194 219 216 205 220 210 188 184 192 180 169 158 154 115 81 87 89 60 50 62 107 106 118 131 131 110 136 141 155 165 158 163 174 178 193 220 214 210 217 207 192 188
171 175 163 147 155 186 195 168 179 189 187 178 163 122 81 84 112 105 102 111 139 159 124 110 124 132 122 120 140 152 158 167 169 179 217 240 229 214 217 208 186 175 175 172
202 183 163 153 158 129 114 101 104 110 116 128 136 138 180 172 105 101 99 104 142 108 106 99 102 93 100 131 139 156 160 166 192 201 195 198 214 218 199 183 174 170 160 135
178 181 203 242 210 163 146 157 181 136 85 100 101 97 102 102 97 99 105 118 130 160 144 124 109 101 129 169 179 188 189 192 200 208 217 208 196 176 166 163 151 143 132 120
224 191 170 182 173 160 169 173 147 162 200 122 126 136 135 103 111 118 138 142 129 137 146 138 136 137 120 112 104 132 157 170 185 188 170 166 157 142 131 123 117 106 88 77

GFSNGP_con_3kmhel_057.txt.gz
Helicity
187 35 85 74 65 59 106 64 32 83 73 43 26 4 99 141 138 67 114 167 186 197 113 97 145 232 385 399 427 391 420 377 416 455 423 362 336 310 327 347 354 368 387 399
111 120 89 114 73 -17 18 86 94 93 64 -16 16 89 85 97 59 66 205 195 167 193 242 293 290 293 319 405 405 379 405 396 406 409 420 380 359 342 348 356 343 356 382 370
114 81 90 96 0 -13 16 35 94 52 110 89 74 119 167 99 77 87 92 106 168 239 315 392 397 434 380 297 306 380 413 401 407 430 424 373 342 339 326 325 352 357 333 315
213 202 142 137 3 110 56 26 47 86 84 58 54 49 92 78 64 70 112 210 290 367 496 522 525 478 404 331 344 347 399 442 443 419 410 385 405 334 340 325 306 295 281 255
232 257 214 145 142 106 86 76 44 58 52 52 72 77 154 132 160 166 214 288 383 499 627 648 599 646 604 506 506 435 388 378 356 369 408 375 327 311 290 294 264 227 202 234
359 305 171 110 150 139 110 115 118 106 77 77 94 109 128 168 145 188 257 329 416 459 544 569 622 713 687 585 501 384 350 332 327 362 362 328 305 293 263 214 198 229 291 330
344 234 209 94 99 78 157 157 105 67 64 39 27 58 156 199 189 187 241 322 441 451 435 425 487 505 462 425 371 357 363 392 418 353 329 313 297 240 214 288 343 369 412 329
90 93 123 132 203 167 114 113 35 28 41 53 70 70 72 109 138 192 275 340 399 415 404 435 451 434 379 363 375 461 491 434 384 358 330 319 275 271 303 337 352 337 407 393
-9 21 117 174 139 77 123 319 134 63 80 103 99 146 170 164 220 262 343 404 428 409 396 397 410 401 433 455 528 500 456 409 369 371 363 312 340 415 440 379 363 366 401 346
120 24 67 131 26 2 -71 28 217 191 29 98 198 217 119 227 295 335 355 409 427 424 422 428 444 471 507 517 536 490 423 386 392 406 485 572 565 521 479 458 476 462 426 389
90 79 49 22 89 52 68 1 191 247 176 23 -32 4 193 239 294 350 369 421 423 447 445 461 539 582 551 522 477 457 458 501 542 675 725 707 582 478 508 513 411 416 345 289
40 24 71 -29 26 -19 -14 16 -5 209 160 94 39 116 192 230 253 343 374 407 468 504 571 617 682 626 528 467 465 534 613 657 697 661 633 579 524 535 524 460 402 307 249 214
76 101 96 62 97 77 45 63 57 -36 23 49 55 156 229 275 262 311 381 455 564 669 760 881 955 938 826 727 704 687 715 702 702 677 572 512 458 480 511 373 293 239 210 175
259 148 103 139 92 98 60 74 52 34 89 133 79 173 316 390 457 399 493 609 788 942 954 998 1051 1009 871 788 802 845 855 817 762 741 680 638 560 520 404 244 211 205 99 76
333 271 189 148 136 90 37 47 70 115 154 228 270 391 519 610 629 656 736 866 1068 1169 1106 1132 1140 1099 968 964 1002 876 721 636 578 603 644 619 392 254 270 256 226 190 136 155
244 262 239 189 149 56 54 111 114 186 271 370 497 680 801 948 1064 1080 1163 1222 1294 1229 1235 1280 1254 1104 984 836 765 696 674 722 583 347 257 253 255 253 235 218 205 202 206 197
159 195 200 196 153 202 171 160 155 148 201 326 459 595 808 966 1137 1181 1174 1238 1218 1196 1084 1014 797 655 582 560 536 472 395 323 272 245 233 218 209 198 189 194 192 198 201 183
155 172 165 146 145 160 189 193 208 229 248 267 391 570 743 870 945 1029 1035 995 944 847 681 545 465 421 401 383 339 276 239 229 210 192 162 163 152 155 170 185 203 217 220 187
163 192 215 242 225 214 204 199 210 229 250 319 449 554 592 630 614 625 605 587 511 430 357 342 330 300 279 234 218 195 180 161 131 116 120 128 145 164 188 193 196 199 205 213
201 265 297 328 389 353 313 291 278 325 343 411 473 534 581 569 470 440 419 432 313 236 195 164 164 173 170 153 142 120 113 113 123 131 129 146 161 182 193 200 212 220 219 221
275 301 321 319 334 351 325 307 320 356 355 360 374 355 322 280 252 204 213 199 147 120 128 147 132 121 106 98 77 84 107 126 145 163 173 174 185 198 211 219 226 232 235 232
206 206 201 193 210 225 216 198 197 196 212 211 185 163 160 162 157 170 144 107 81 112 113 112 114 121 106 123 115 122 131 143 152 164 185 201 205 216 236 241 243 240 235 225
109 114 128 142 137 129 154 162 158 156 162 152 146 133 120 99 87 88 98 74 98 109 89 89 102 119 139 139 134 147 159 173 182 191 207 230 261 254 242 237 236 231 216 202
110 120 112 96 104 140 156 135 152 164 164 173 157 95 96 101 131 128 130 138 127 107 81 80 110 143 164 144 147 156 167 178 178 185 204 217 231 250 261 256 236 199 188 172
250 247 221 197 192 154 127 107 121 134 150 168 184 180 167 124 94 98 125 134 114 92 79 91 112 142 124 129 131 140 154 171 177 180 185 190 194 202 198 201 192 186 172 157
222 197 193 214 198 187 172 179 179 116 107 126 133 134 122 100 87 105 123 132 131 134 82 59 66 90 85 103 113 132 136 146 148 150 151 157 162 154 141 136 133 124 105 80
196 185 158 157 162 157 172 190 191 192 151 129 154 170 171 174 174 140 140 131 138 128 125 124 135 136 137 120 104 98 105 107 109 111 110 101 90 79 103 91 72 56 49 45

GFSNGP_con_3kmhel_060.txt.gz
Helicity
47 80 67 109 142 119 133 179 187 145 127 131 101 104 45 58 52 148 131 123 164 163 189 191 152 162 217 345 407 463 416 329 262 245 210 359 388 337 280 330 358 337 359 374
83 50 58 98 108 155 63 99 119 121 144 116 85 106 64 72 87 107 140 124 128 197 258 241 204 198 333 493 391 331 329 344 385 422 395 373 339 342 396 390 402 385 400 400
99 140 101 158 74 85 123 95 75 103 73 106 97 53 34 30 120 101 94 150 165 162 248 296 311 345 354 454 457 431 419 423 456 448 415 419 425 416 412 376 411 422 392 384
113 213 174 53 188 167 97 120 86 100 75 103 94 35 67 120 138 121 102 159 147 173 217 402 473 458 499 488 488 431 402 430 458 458 476 471 462 435 403 400 381 374 365 346
152 111 130 44 106 72 141 77 119 98 90 72 47 88 86 58 88 99 147 185 207 238 362 534 588 584 560 495 447 438 397 423 418 454 494 483 435 409 397 406 377 351 350 354
-72 76 73 117 121 79 125 149 152 98 109 36 69 85 65 62 131 171 201 227 245 301 468 638 595 565 504 494 487 448 412 423 428 487 491 443 400 354 321 341 381 379 397 370
-116 -65 95 208 304 98 158 84 155 128 127 108 143 82 81 169 196 213 183 207 266 290 356 489 586 572 551 548 533 470 394 393 422 410 408 365 322 307 335 400 435 464 477 455
-1 1 77 211 257 254 190 245 174 162 226 125 65 71 60 142 160 145 137 159 210 285 342 409 466 475 439 430 423 434 444 438 396 355 330 302 321 346 382 433 485 481 516 550
17 -31 60 46 84 256 199 247 281 210 243 329 121 114 142 116 124 130 173 212 245 316 381 386 400 390 421 427 454 443 422 375 371 361 334 340 379 409 429 467 473 482 497 489
42 6 -14 -29 3 31 61 49 146 166 298 263 270 116 81 175 170 199 200 249 298 352 363 378 366 371 404 404 419 412 400 402 407 445 491 504 494 439 425 450 449 435 418 414
57 69 63 30 26 85 77 53 45 148 203 322 256 215 95 123 168 245 285 302 329 354 381 409 427 448 423 415 422 438 475 518 533 537 542 575 618 546 529 505 432 441 443 418
34 28 58 45 33 96 8 3 5 -14 65 130 180 250 121 133 231 268 311 379 435 463 499 484 493 494 470 455 494 554 574 538 524 573 610 645 650 683 688 572 519 468 408 381
132 207 75 93 140 59 102 108 106 59 25 100 40 70 85 161 251 379 429 465 521 600 609 624 667 669 584 576 608 622 626 629 668 672 663 639 603 561 548 521 461 464 391 301
352 269 220 262 176 171 176 145 138 153 125 118 70 99 186 278 478 580 620 641 699 746 757 740 806 840 772 769 806 782 765 747 729 704 672 636 571 504 504 585 579 307 279 261
325 291 218 186 151 179 139 98 126 132 147 185 330 342 430 589 691 722 756 802 880 882 811 848 1028 969 907 910 936 938 916 854 778 711 614 554 563 524 375 288 263 231 215 201
160 130 190 135 130 158 116 115 80 97 130 216 342 546 705 828 897 934 943 906 1015 1079 1037 1109 1188 1064 1113 1001 890 756 622 529 488 458 433 374 341 316 272 252 240 232 216 194
37 99 129 127 111 132 134 104 125 146 179 250 325 417 578 748 911 973 975 1014 1096 1144 1017 918 862 751 632 524 444 404 392 402 384 371 338 302 265 236 219 213 200 192 185 186
101 112 115 108 90 101 142 168 163 172 206 240 314 413 532 639 722 791 854 895 966 984 894 673 568 449 384 348 332 353 350 319 284 247 221 216 201 178 163 160 172 187 199 202
199 157 155 163 161 188 204 220 233 220 241 287 383 487 550 608 628 627 617 631 598 547 458 346 317 268 281 296 286 241 219 200 182 169 158 156 152 149 169 186 191 199 210 221
220 236 239 290 311 292 269 294 324 385 400 424 481 544 575 553 468 461 448 451 350 238 212 239 268 293 240 206 190 166 166 162 153 137 136 136 146 171 181 201 213 225 231 236
225 248 292 305 334 332 319 275 275 319 327 349 349 333 315 268 248 212 225 221 224 229 221 217 191 180 148 132 121 115 115 123 134 140 145 158 174 189 200 213 215 213 236 244
169 192 192 169 175 194 199 186 186 184 190 186 175 167 175 183 175 184 172 138 126 153 146 149 146 157 128 127 114 123 131 138 144 161 184 203 216 232 244 253 255 246 241 232
150 148 148 158 159 153 171 182 180 170 172 166 157 151 155 144 123 106 126 108 93 105 98 103 128 145 144 121 122 127 126 128 127 138 153 174 198 211 224 233 231 219 202 194
171 164 150 129 122 144 164 150 159 162 164 164 158 133 102 107 133 107 97 95 83 84 82 86 109 132 121 107 116 123 135 147 156 157 151 156 166 169 174 168 180 190 210 213
155 166 175 160 157 131 106 97 125 138 148 155 153 145 138 117 101 82 99 97 107 91 93 110 129 134 113 116 115 121 129 115 99 104 108 109 104 108 112 127 129 125 116 104
163 149 150 160 138 128 125 124 140 129 126 155 180 164 143 127 128 127 135 136 122 119 110 121 121 121 111 107 116 106 96 94 96 95 95 92 90 94 90 89 81 69 52 49
181 161 157 185 183 159 147 144 139 135 125 117 151 164 163 155 142 137 140 128 116 109 103 103 98 89 73 67 72 76 67 62 75 68 71 75 73 60 60 52 43 37 41 50

GFSNGP_con_3kmhel_066.txt.gz
Helicity
117 109 179 111 154 270 208 156 97 28 21 94 62 57 78 81 65 65 55 44 69 70 98 137 149 155 159 201 309 363 358 393 430 460 437 336 143 117 125 120 -73 18 120 172
100 23 97 78 101 69 94 112 92 70 35 82 63 58 66 67 55 51 81 79 59 92 84 107 143 206 175 172 215 289 293 328 353 341 329 283 187 153 151 96 88 142 176 201
46 -10 3 94 68 68 173 105 62 17 18 82 113 88 93 68 77 62 73 57 61 79 117 141 159 241 222 191 239 277 259 211 228 258 262 233 189 188 240 255 311 293 332 285
-4 -5 29 -24 -13 18 35 234 182 164 89 76 75 73 36 41 65 82 82 72 49 111 146 120 175 308 289 234 255 265 252 259 249 251 249 308 342 346 358 365 344 357 309 296
9 -38 -18 -43 -46 -49 -40 74 24 28 70 110 117 118 26 37 44 46 89 93 79 106 104 115 215 307 341 287 256 290 289 301 316 321 400 419 364 341 353 365 335 306 326 351
74 56 -15 -47 24 36 30 -21 116 45 68 135 66 63 41 43 66 46 41 110 87 90 123 129 164 310 346 300 296 273 315 328 342 359 378 349 360 377 360 323 377 413 476 456
95 79 68 38 -15 -29 -25 -6 159 118 61 213 257 64 39 75 70 60 31 91 71 77 110 156 200 257 297 306 271 309 347 384 350 353 355 352 359 338 391 436 497 560 635 638
163 116 65 42 30 -19 -24 -25 27 52 179 138 228 229 72 65 118 79 107 93 70 99 125 156 180 246 242 290 364 405 383 350 334 336 318 319 383 422 461 526 606 654 682 682
144 159 106 118 54 78 125 55 -0 30 46 214 227 258 172 131 45 17 34 106 226 170 202 227 206 201 269 281 272 309 318 336 339 360 351 368 412 454 481 496 574 576 525 485
154 126 83 42 -18 -68 20 93 30 64 23 12 279 244 196 148 163 185 128 117 118 156 182 192 169 174 186 220 253 284 328 324 313 357 386 395 407 407 434 445 423 359 396 426
116 99 50 -0 12 -35 29 19 35 32 7 -18 115 250 139 111 122 105 156 236 188 180 154 151 156 170 166 189 245 280 272 291 336 363 392 457 486 410 332 277 231 268 301 343
127 175 112 60 28 82 78 88 107 25 46 65 50 90 69 55 -1 -34 116 195 166 222 195 172 176 184 169 171 195 208 230 245 263 302 316 341 365 434 452 362 371 395 437 484
79 96 108 47 10 55 21 24 84 80 128 134 193 21 43 35 101 142 194 127 198 292 324 360 372 429 343 263 281 329 356 340 330 347 360 413 474 531 592 581 566 491 497 486
145 89 68 40 19 44 52 35 95 80 101 144 173 101 78 135 220 241 284 273 90 187 263 260 309 362 343 323 399 465 520 543 546 523 571 611 598 558 476 441 436 403 378 340
177 179 67 40 94 75 77 104 87 54 95 138 134 139 136 164 215 283 334 382 429 495 465 376 413 439 409 421 528 563 580 582 585 541 563 544 467 408 340 293 273 267 260 300
151 158 154 109 115 43 163 169 141 89 38 61 124 157 158 183 233 279 312 348 416 478 524 502 507 485 462 470 537 613 611 597 630 500 504 437 365 326 297 270 251 261 294 307
112 108 141 120 94 109 124 101 89 115 117 136 141 134 210 234 290 354 387 424 448 498 521 537 516 538 601 566 535 545 477 488 450 429 366 309 286 283 280 298 318 312 290 255
119 77 84 90 98 135 141 161 146 144 154 146 210 307 368 384 356 365 407 427 471 519 551 484 462 485 491 450 349 331 345 346 310 298 275 281 278 267 260 243 223 208 197 216
134 118 138 146 125 127 176 185 190 185 184 199 278 294 339 419 403 408 439 518 478 454 409 365 384 386 350 287 236 216 223 226 227 228 216 217 218 204 195 187 186 189 184 185
141 179 202 200 208 174 170 179 216 315 279 258 251 338 362 363 370 360 372 404 360 263 244 246 241 247 236 237 207 182 186 183 172 164 159 160 162 164 163 179 185 198 198 191
178 206 219 217 247 247 231 202 234 278 252 269 285 267 249 240 254 231 243 246 247 211 197 193 158 139 135 131 127 116 116 122 130 131 134 136 152 168 179 183 182 179 186 172
145 175 183 168 170 183 183 158 139 126 135 125 116 112 128 140 139 165 149 104 90 119 100 96 82 99 80 96 84 92 101 116 122 127 138 142 137 145 154 158 160 154 150 146
108 109 106 104 96 89 108 120 120 113 110 100 94 89 90 70 57 61 89 91 79 90 73 68 82 99 100 74 72 78 85 92 93 92 93 105 107 109 111 123 120 115 117 111
108 93 79 74 78 99 119 103 113 116 109 110 109 78 53 55 81 64 57 83 93 85 62 43 57 77 62 49 59 70 77 81 90 88 85 91 82 76 80 67 75 76 85 86
92 91 95 93 99 76 72 66 85 89 96 103 102 96 88 61 24 24 50 61 89 72 68 88 88 84 56 54 53 61 61 58 48 45 45 44 45 47 46 56 62 62 60 55
109 97 90 106 91 77 73 75 86 68 61 86 101 87 88 76 72 73 71 64 53 51 44 44 45 45 49 52 51 50 52 51 51 49 46 41 38 45 44 46 53 60 60 57
119 119 113 137 132 106 91 86 87 87 75 69 82 83 82 80 79 68 64 55 46 42 47 52 52 50 43 41 46 41 36 35 43 40 41 37 35 37 49 60 63 57 55 54

GFSNGP_con_3kmhel_069.txt.gz
Helicity
137 146 124 154 212 229 173 81 75 51 73 86 72 75 72 30 50 37 41 31 58 63 55 50 60 75 84 90 158 222 232 211 211 235 268 248 211 166 130 110 147 178 221 104
98 79 112 103 101 161 135 63 72 61 18 61 97 127 105 57 48 22 67 52 61 62 54 51 74 84 127 125 167 201 164 137 107 148 184 193 203 197 156 116 96 123 157 63
48 48 53 99 64 68 95 76 67 11 -28 8 91 104 68 60 75 59 54 61 67 64 73 78 96 130 132 178 185 192 150 111 111 129 140 125 109 123 135 114 102 121 139 147
120 117 104 119 137 53 44 42 14 23 14 34 30 48 65 104 80 42 55 83 55 53 49 77 88 112 143 160 203 189 152 134 142 150 130 125 134 126 105 87 113 159 171 174
104 78 95 80 58 75 45 19 87 66 98 85 69 -7 127 217 177 115 28 21 37 33 56 42 62 90 113 135 157 175 168 179 165 172 141 158 168 213 297 264 258 263 265 271
98 66 45 68 66 34 22 78 34 -32 4 22 36 11 27 197 319 133 69 30 53 46 75 74 72 64 111 114 158 154 152 139 155 179 164 256 325 328 296 298 294 292 311 275
35 62 25 16 12 30 38 60 8 14 -10 -22 47 -3 40 101 250 169 92 56 32 33 26 45 61 70 109 116 134 217 245 289 316 325 338 341 349 356 358 366 380 401 439 415
85 66 24 33 41 79 42 10 26 73 59 25 32 43 9 102 145 206 73 105 117 60 71 95 35 78 120 180 297 340 357 312 301 311 293 322 360 368 365 397 428 462 498 563
88 91 96 80 85 54 -28 -45 -33 13 69 19 8 -26 2 97 77 119 6 11 107 133 133 90 96 102 175 191 223 319 354 331 292 309 326 340 391 373 412 389 467 515 601 691
78 76 14 26 62 76 -7 -45 -98 -50 6 19 20 47 23 67 184 178 91 -95 41 154 220 334 242 208 215 244 243 272 259 263 284 287 347 350 324 309 335 368 427 474 472 574
60 40 57 37 88 43 48 24 7 -1 43 120 149 99 18 59 335 221 112 71 14 151 255 322 265 207 169 168 163 188 212 212 246 256 279 333 373 321 314 308 274 321 350 385
87 133 100 64 46 46 60 66 48 45 77 144 133 131 92 -9 95 138 110 108 58 32 118 196 238 312 241 179 171 188 213 213 224 247 300 354 402 497 477 374 357 368 374 411
133 130 72 8 16 71 45 55 47 45 38 53 77 113 181 93 123 110 104 175 242 206 23 99 164 252 256 260 228 271 256 292 359 367 376 422 475 490 511 477 444 380 371 351
132 113 74 138 84 59 71 69 52 79 74 25 68 92 79 103 123 158 148 164 193 300 419 311 159 211 173 235 315 382 429 432 429 425 423 445 443 399 365 400 474 441 386 310
187 150 117 84 95 80 79 105 101 93 118 108 97 107 111 92 117 149 145 163 219 310 347 318 343 344 283 232 296 368 403 432 452 508 486 450 456 436 377 336 347 317 284 289
43 51 140 196 149 112 114 117 107 89 134 173 199 80 76 88 127 182 233 244 282 283 322 367 392 390 382 385 404 485 526 561 527 557 493 505 427 364 317 289 266 254 252 245
91 86 60 119 87 108 128 124 163 152 115 81 114 123 123 152 238 294 319 327 348 373 356 364 319 357 363 342 323 348 394 467 390 416 354 301 311 274 255 242 236 246 263 265
73 78 116 126 94 92 120 140 120 148 165 154 156 186 251 301 271 286 288 297 351 435 425 360 338 353 354 334 301 283 290 297 292 260 225 246 238 233 236 238 241 236 233 243
107 93 139 122 135 140 142 150 170 169 194 223 287 323 369 365 354 350 359 400 399 385 359 331 318 306 276 246 200 182 190 202 213 216 201 201 196 184 185 187 193 193 188 189
116 142 137 140 199 186 174 169 193 248 243 254 267 323 375 345 297 299 316 349 291 214 195 218 208 205 189 184 160 135 144 142 138 139 135 137 142 148 159 187 184 191 196 202
193 178 187 208 215 214 198 165 168 203 185 190 205 206 192 179 168 140 177 187 180 147 133 145 123 98 91 86 90 86 93 99 111 113 119 124 139 162 172 174 178 176 172 165
174 179 178 172 178 183 168 136 122 101 99 93 85 82 92 94 91 118 115 68 53 77 60 60 57 83 73 93 83 96 107 120 124 131 144 149 148 157 162 164 166 156 145 136
112 100 96 98 92 87 94 97 86 80 83 78 78 77 74 58 43 38 61 63 46 71 62 70 94 112 113 92 98 110 123 130 127 122 125 126 123 119 113 108 102 99 99 101
87 87 82 74 69 86 108 85 85 88 86 89 102 75 47 40 63 47 30 56 78 78 69 65 78 94 83 67 75 79 80 91 88 80 74 76 69 67 71 70 74 73 76 79
91 81 74 77 86 75 59 52 64 71 79 87 85 79 69 47 19 12 30 39 68 56 55 76 76 67 46 41 45 51 52 54 53 54 53 51 49 51 52 55 54 57 60 67
91 92 87 98 74 58 55 59 76 62 55 83 95 78 69 53 46 46 46 49 50 52 56 45 45 41 44 44 46 49 49 49 51 51 45 45 45 45 45 47 50 56 60 61
98 86 84 106 104 89 81 81 83 90 72 57 68 58 55 45 51 45 41 35 33 36 39 41 40 37 32 35 40 41 41 43 46 44 46 47 48 49 48 47 48 51 52 53

GFSNGP_con_3kmhel_072.txt.gz
Helicity
122 130 129 167 186 169 127 114 100 87 82 66 44 26 32 46 41 52 62 38 30 46 40 31 35 49 63 52 81 96 103 126 145 142 137 120 102 101 107 115 125 124 115 112
82 93 117 111 107 132 126 97 46 -3 -14 26 43 69 59 30 40 54 57 107 43 43 31 56 52 51 53 52 78 100 90 83 81 80 81 92 107 121 111 122 121 124 125 102
65 41 53 61 31 52 50 45 30 53 99 90 42 21 24 79 85 62 55 99 160 97 89 57 26 61 61 49 95 103 92 83 80 68 54 43 52 88 112 124 152 160 132 76
110 88 74 117 119 92 75 52 57 92 105 85 52 50 35 35 60 96 45 48 83 93 84 89 70 45 66 65 68 81 80 105 114 106 96 85 77 77 96 110 115 151 150 121
117 53 87 92 77 76 85 102 124 127 124 101 83 52 68 53 64 90 98 53 14 53 48 32 47 21 52 75 67 69 84 114 139 138 144 128 114 115 151 150 173 179 197 224
114 110 80 90 72 150 108 143 165 134 129 107 82 130 116 97 32 72 72 88 74 31 50 73 110 53 51 67 87 73 117 127 151 177 160 154 140 210 327 284 295 335 342 296
36 44 36 17 23 33 76 153 94 84 80 62 45 39 46 77 23 14 60 58 73 66 82 131 109 55 66 58 73 90 115 112 137 164 158 248 378 315 367 375 402 384 376 362
48 37 32 36 15 24 111 68 35 29 29 34 36 23 24 36 37 14 15 32 21 57 93 88 99 83 47 76 186 213 247 316 309 320 312 313 364 380 364 355 385 399 405 448
52 38 55 69 61 66 2 2 2 -9 -5 15 -0 18 31 42 37 16 69 71 36 6 44 88 215 282 131 89 89 116 181 267 290 349 368 347 403 352 433 353 400 486 450 471
46 52 41 89 58 48 38 6 12 26 5 21 30 61 82 113 105 43 66 100 103 74 78 52 153 365 339 221 141 160 224 292 387 363 413 384 367 394 373 382 434 486 474 502
31 27 45 42 86 67 67 65 59 73 50 58 49 47 74 125 129 107 104 208 172 171 127 140 132 246 383 459 351 264 307 332 408 462 506 532 489 443 415 413 375 400 435 453
42 104 86 43 53 51 39 57 68 74 87 69 80 88 91 111 138 165 107 37 103 219 315 128 95 130 212 284 312 308 304 314 370 375 357 378 433 533 545 527 468 425 405 395
121 95 64 38 37 58 56 41 52 43 51 57 70 99 99 63 82 75 205 132 91 104 138 144 167 103 133 83 133 261 379 352 331 362 369 429 470 485 586 600 575 440 375 362
109 82 48 125 109 84 63 95 90 71 89 105 95 109 158 108 103 214 118 73 116 123 138 149 209 297 323 166 108 106 205 437 459 439 488 503 476 440 465 448 499 439 410 372
119 78 61 51 124 108 86 100 111 127 158 139 112 193 265 150 141 181 115 128 160 210 245 239 226 263 256 246 272 298 307 340 342 447 476 471 471 495 442 385 408 418 404 408
82 77 67 83 103 110 108 103 108 131 141 136 168 180 284 308 299 402 316 305 242 230 271 287 283 275 269 247 267 332 401 445 375 380 417 385 448 403 298 262 239 245 253 234
146 121 114 91 95 117 128 104 107 108 145 164 218 250 243 197 202 275 276 278 317 368 339 334 307 305 297 291 274 224 263 324 343 352 340 335 313 268 254 239 223 222 236 260
89 79 96 133 82 109 113 120 127 151 176 189 207 224 219 247 253 223 241 281 339 393 394 357 303 278 297 258 224 217 224 237 237 245 236 241 234 216 203 202 195 197 209 239
111 102 124 112 107 101 146 128 161 187 197 191 205 232 240 242 235 251 279 353 365 359 316 267 259 236 225 210 163 154 164 167 175 186 187 192 202 202 191 185 188 191 187 191
109 124 124 168 165 152 164 165 182 220 201 185 183 194 215 207 196 215 237 304 272 205 166 166 157 166 151 149 128 109 115 122 129 141 151 154 156 161 175 208 190 189 195 193
158 163 179 187 192 199 185 158 157 170 151 151 150 146 147 148 151 121 144 165 159 119 107 119 117 86 84 84 90 95 104 111 127 137 146 152 158 171 175 178 178 175 166 161
153 154 162 170 183 184 161 140 118 101 103 104 93 81 80 82 84 98 113 90 74 100 89 97 107 137 117 131 118 128 135 141 142 144 155 159 163 167 167 158 168 148 136 127
103 96 99 108 104 96 93 91 86 82 87 85 85 84 85 80 80 75 95 107 80 94 84 102 126 138 138 123 126 133 145 152 149 145 140 139 134 142 135 129 119 114 112 108
71 79 82 74 70 80 109 82 82 80 81 89 100 98 76 69 79 68 56 72 96 105 109 109 118 130 121 104 110 113 113 113 109 104 99 116 109 105 105 103 99 93 86 82
87 85 77 74 85 77 61 59 68 78 90 98 99 99 103 92 79 68 67 72 95 83 79 95 95 85 70 70 75 78 81 96 93 88 91 91 91 89 86 83 79 77 68 67
94 102 95 105 94 77 73 69 78 75 69 82 86 76 72 66 63 65 66 68 64 59 52 51 51 51 57 62 74 78 78 79 79 82 77 78 78 79 76 75 68 66 63 60
94 81 80 98 108 106 99 95 88 93 90 81 81 78 74 71 66 57 58 55 57 56 57 54 52 58 60 61 69 72 71 75 81 75 77 78 76 75 72 65 62 59 56 55